GFSFLT1_sfc_temp_000.txt.gz
Temp
56 57 56 56 56 58 58 57 57 57 54 53 52 52 52 52 52 53 54 54 54 53 52 52 50 49 48 47 47 46 47 47
52 53 54 55 55 57 58 57 57 55 53 53 52 52 52 52 52 54 53 54 54 54 53 51 50 50 52 48 47 47 46 45
55 54 52 55 57 57 57 57 57 55 53 52 52 51 51 51 52 52 53 53 54 55 54 53 52 52 48 48 47 45 45 44
53 54 53 54 55 55 56 56 56 55 54 52 52 51 51 52 53 52 54 53 55 54 55 54 53 52 52 51 49 46 47 43
54 54 54 53 54 54 55 55 55 56 54 52 50 49 49 52 52 53 56 53 51 53 54 53 53 53 52 50 51 48 44 42
54 54 53 52 52 51 51 53 54 54 53 51 49 50 49 50 51 49 51 50 48 49 51 52 50 49 48 48 46 44 46 43
55 53 53 51 51 51 51 53 53 53 52 50 48 46 47 48 51 47 47 45 44 44 45 45 44 44 43 43 45 45 43 45
50 50 50 50 50 50 52 50 51 51 49 48 47 48 47 48 49 48 45 42 39 39 41 42 42 42 43 45 43 44 43 43
49 49 49 49 50 50 49 49 49 49 48 48 47 48 47 48 47 44 41 39 39 40 40 41 42 42 43 43 42 42 42 41
49 52 52 51 51 51 48 48 48 48 46 45 45 45 47 47 45 40 39 39 41 40 41 41 42 44 44 44 42 41 40 40
52 52 52 52 50 48 48 47 47 47 45 45 47 45 46 45 40 39 39 39 40 40 41 42 43 42 42 43 41 41 40 40
49 49 49 49 48 48 47 46 46 44 43 43 42 44 43 41 38 38 38 40 41 42 43 42 42 42 42 40 40 40 40 40
49 48 48 47 47 48 46 45 44 44 43 42 42 40 38 37 38 39 40 41 42 42 43 43 43 41 40 40 39 39 38 36
48 49 48 47 47 46 45 45 43 43 42 40 38 37 36 36 37 38 39 40 42 42 43 43 42 41 40 38 37 36 35 34
46 46 47 46 46 44 44 42 43 41 40 39 36 35 36 35 37 38 39 40 42 42 42 40 38 38 38 37 36 33 32 33
45 44 48 47 46 44 42 42 41 40 39 39 38 40 40 38 38 39 40 40 41 40 40 38 37 37 38 33 33 32 31 30
44 45 44 44 44 42 42 41 40 40 39 38 40 42 42 41 40 40 39 39 39 38 35 33 33 36 37 36 35 31 31 31
43 45 46 46 43 40 39 40 39 38 40 40 39 40 40 40 40 38 36 34 33 32 32 32 32 32 36 36 36 31 30 29
45 46 46 42 41 40 37 36 37 37 36 36 38 39 37 36 35 34 33 33 32 31 30 30 29 31 34 34 34 29 27 27

GFSFLT1_sfc_temp_003.txt.gz
Temp
68 69 71 71 72 71 72 72 71 69 70 68 69 69 69 68 69 69 68 69 67 67 67 65 66 65 65 63 62 63 63 65
65 65 67 68 68 70 72 71 70 69 69 68 70 68 68 69 69 67 65 67 66 65 66 66 65 63 64 64 62 60 61 61
63 65 66 67 70 70 69 67 66 66 68 67 66 65 67 65 65 65 66 65 65 65 64 65 65 64 63 63 61 61 61 61
65 66 66 65 65 64 65 65 66 65 64 67 67 66 66 66 67 67 67 65 65 64 63 63 63 63 61 63 62 60 61 62
66 66 66 65 63 63 65 65 65 64 63 63 61 61 60 62 62 64 63 63 62 62 61 60 60 61 61 61 63 61 60 59
62 61 61 61 62 62 63 63 63 62 62 61 61 59 60 61 61 60 60 61 60 58 57 57 57 58 59 58 58 58 59 58
61 60 62 61 61 61 61 62 63 62 61 60 58 57 57 58 59 58 59 59 57 55 55 55 54 54 54 54 54 53 54 54
59 59 60 60 60 60 61 61 61 60 59 58 57 58 58 57 57 57 55 55 55 53 53 53 54 53 53 53 52 51 50 49
58 58 59 59 59 59 59 59 59 60 59 57 57 58 57 56 56 55 53 52 52 51 53 54 54 54 53 53 52 50 48 46
59 59 59 59 58 58 56 57 58 59 57 55 55 55 54 54 53 52 50 50 51 51 51 51 52 52 51 51 50 49 46 45
61 61 60 58 58 56 56 57 57 56 56 55 54 54 53 51 50 48 48 49 50 50 50 50 50 50 50 48 48 48 47 47
60 60 58 57 56 58 57 56 55 55 54 52 52 51 49 48 48 48 48 49 50 50 49 49 47 46 44 45 45 46 47 47
59 59 58 57 57 57 56 55 53 52 52 51 50 49 48 47 47 47 48 48 48 49 48 46 45 46 47 46 45 45 45 45
57 57 55 55 55 53 53 52 51 51 51 50 48 47 47 46 46 47 47 47 48 47 45 45 46 46 45 45 44 43 43 43
55 54 54 54 53 51 49 48 50 49 48 48 47 45 45 44 45 46 46 47 47 44 46 45 44 45 45 45 44 41 41 40
51 50 52 52 50 49 49 49 48 47 47 46 45 45 45 42 44 45 47 47 46 45 43 43 42 42 43 42 41 40 39 38
48 47 47 49 49 48 47 47 45 45 44 43 44 44 46 46 45 44 44 43 43 42 41 40 40 41 37 37 37 39 38 37
46 48 48 49 49 46 46 45 45 44 43 43 44 44 44 43 43 43 42 41 41 40 40 39 39 39 35 36 35 38 37 36
47 50 50 50 49 47 45 45 44 43 43 43 44 43 42 42 41 40 40 40 39 38 38 37 37 37 33 33 33 35 34 34

GFSFLT1_sfc_temp_006.txt.gz
Temp
81 82 84 84 83 84 85 84 81 80 83 81 83 81 83 81 81 80 77 77 75 74 75 74 74 74 74 74 72 73 72 71
80 79 80 80 80 81 82 80 75 80 81 78 79 77 79 79 79 75 74 74 74 72 73 73 73 72 71 70 70 69 69 71
78 78 78 78 78 78 77 76 76 77 79 77 75 74 76 76 77 75 75 72 72 72 71 71 71 71 69 69 68 67 69 70
76 76 75 75 73 74 75 75 74 73 74 77 78 78 76 75 74 74 72 71 71 70 69 69 68 68 68 68 68 66 65 68
75 75 73 73 72 73 73 73 74 72 72 72 69 70 68 69 69 71 70 70 69 69 68 67 66 67 65 66 68 66 65 63
71 71 71 72 71 71 71 72 72 72 71 69 70 67 68 69 69 67 68 69 69 68 66 64 64 65 64 62 62 62 63 62
70 71 72 71 71 70 70 71 70 70 70 68 65 64 65 65 65 65 66 66 67 66 64 63 62 62 61 61 60 58 58 58
69 69 70 70 69 69 69 69 69 69 67 66 65 65 65 64 63 63 61 62 62 62 60 61 62 60 60 61 60 57 52 50
68 69 70 69 67 68 68 68 68 68 66 66 67 66 65 64 63 61 59 59 60 59 59 60 60 60 59 58 53 51 52 52
68 69 69 68 67 65 66 66 68 68 66 65 64 63 62 60 59 59 59 58 59 58 58 57 57 56 56 54 51 48 48 48
69 70 68 67 68 67 67 67 67 66 65 63 62 61 60 58 57 56 56 57 57 56 56 55 54 54 52 50 48 47 46 47
68 68 69 68 67 67 66 66 64 63 63 61 60 58 57 57 56 55 55 55 55 55 54 53 52 47 45 44 45 47 49 49
68 68 67 66 65 65 64 63 61 59 59 58 58 57 57 56 54 54 53 52 53 53 50 47 47 47 48 47 47 50 49 49
67 66 64 63 62 60 56 56 58 59 58 58 57 55 55 53 52 51 50 48 48 47 48 48 47 47 48 49 50 49 49 49
63 61 61 59 56 55 57 57 58 57 57 56 55 54 51 49 47 49 50 50 50 50 50 49 48 48 49 49 49 47 47 47
58 58 56 57 58 58 58 57 56 56 55 54 51 52 52 52 51 51 51 50 50 50 49 48 48 48 48 44 45 45 45 44
53 50 52 57 57 57 55 56 56 54 54 50 51 51 51 51 50 49 49 49 49 48 47 46 45 47 36 36 38 42 43 43
47 49 57 57 57 56 56 56 55 53 52 51 51 51 49 49 49 49 48 47 47 45 45 45 44 44 35 35 34 39 40 40
52 55 56 57 59 58 57 56 55 53 51 51 50 49 48 48 48 47 46 46 45 44 44 43 42 43 36 34 33 37 38 39

GFSFLT1_sfc_temp_009.txt.gz
Temp
89 87 89 90 88 88 89 86 86 84 86 83 84 83 83 84 83 81 79 79 76 75 75 75 75 74 75 75 73 73 73 73
86 84 84 85 84 85 86 83 80 83 83 80 80 79 80 80 81 78 77 76 75 73 74 74 73 72 72 71 71 69 70 72
81 81 82 82 82 81 81 80 79 81 81 79 77 76 78 78 79 77 77 74 73 73 71 71 71 70 69 69 68 67 69 70
78 78 78 78 77 78 79 78 77 76 78 79 78 78 78 77 75 75 75 73 73 72 71 69 68 68 68 67 67 65 64 67
79 78 77 75 75 76 77 76 76 76 74 74 71 71 69 71 72 73 72 72 72 71 70 68 66 66 65 66 67 64 63 61
75 75 76 76 74 73 75 75 75 74 74 72 70 69 70 72 71 68 68 70 69 70 68 67 64 65 64 63 62 61 61 60
75 75 76 75 74 73 74 74 74 73 72 71 69 65 64 66 66 65 66 66 66 66 66 64 63 63 62 61 61 59 55 55
73 74 75 73 72 72 73 74 74 74 72 70 69 68 67 66 65 64 62 62 62 62 62 61 61 62 62 59 54 51 50 46
72 73 73 74 73 73 72 72 72 74 72 70 70 68 66 65 63 61 59 59 60 61 60 60 60 57 56 56 54 53 51 51
72 73 74 73 72 72 71 70 71 72 70 69 66 65 63 61 59 59 59 59 60 60 59 58 56 55 52 51 49 48 49 48
73 73 73 73 73 72 71 70 70 70 68 66 65 63 61 60 59 58 58 58 58 57 55 54 52 49 49 48 49 50 48 48
72 72 70 71 72 71 70 68 66 65 66 63 61 61 60 59 59 58 56 53 54 53 52 50 50 49 48 47 47 48 47 47
70 70 68 67 67 67 67 64 63 63 63 62 61 61 60 59 58 54 53 54 53 52 51 50 49 48 47 47 46 47 48 47
66 67 67 64 65 64 63 63 62 62 62 61 61 60 58 56 54 53 53 53 53 52 52 51 50 51 51 50 50 49 48 48
62 62 62 62 61 59 62 62 62 61 61 60 58 56 55 54 53 53 53 54 52 52 52 51 50 50 50 50 49 47 47 48
59 59 60 59 59 62 62 62 61 61 59 59 56 56 55 54 53 53 52 52 52 52 50 50 50 49 49 44 44 43 43 44
56 58 58 59 61 61 61 60 61 60 58 56 56 55 52 52 51 51 51 50 50 50 49 48 47 48 36 36 37 40 40 41
55 57 59 60 61 61 59 62 61 59 58 57 56 52 51 50 51 51 50 49 49 47 47 47 45 45 36 36 34 38 37 38
56 58 59 61 63 63 61 62 61 59 57 55 54 52 50 50 51 50 49 49 47 46 45 45 43 44 37 34 33 36 37 37

GFSFLT1_sfc_temp_012.txt.gz
Temp
86 86 85 85 83 82 82 77 73 76 75 75 74 73 72 72 71 70 70 69 67 65 64 63 64 62 61 61 59 61 60 61
80 79 79 80 80 77 75 69 73 74 74 70 68 67 69 69 71 70 70 67 66 64 62 61 61 60 59 59 58 57 58 59
77 76 73 73 74 73 75 74 72 71 72 69 68 68 68 69 69 67 68 66 65 66 62 61 60 58 57 57 56 55 55 56
74 73 72 71 71 71 73 72 70 68 68 71 68 68 66 66 66 65 66 65 66 64 61 60 58 57 55 55 55 54 52 54
75 73 70 69 68 70 71 72 71 70 68 67 65 64 62 64 64 64 64 64 62 62 61 59 57 56 54 54 58 53 52 50
72 71 71 71 69 68 70 71 71 70 69 66 63 62 61 61 60 60 60 60 60 60 59 56 55 55 54 53 52 51 50 47
72 73 73 71 70 69 69 70 71 70 68 65 62 60 60 59 58 57 56 57 56 56 58 55 54 54 53 52 51 48 46 46
71 72 72 71 69 69 69 69 69 69 68 65 63 61 59 57 56 54 53 53 53 53 54 53 53 52 53 52 50 49 48 45
70 71 70 70 70 69 69 68 67 68 66 64 62 60 58 57 55 53 52 52 52 53 53 53 51 50 49 49 48 47 46 46
71 71 71 70 69 68 66 66 67 65 62 60 59 58 56 54 53 53 52 52 54 52 50 50 49 47 48 47 45 45 46 44
70 70 68 68 67 66 64 63 62 62 61 58 58 57 56 55 53 52 51 50 51 50 49 49 48 47 46 46 43 44 44 44
68 68 68 67 66 65 62 61 61 60 60 58 57 56 56 55 53 50 50 49 50 51 50 50 49 47 44 43 43 43 43 43
66 65 64 64 63 63 62 61 60 59 59 57 56 56 55 53 51 50 49 48 49 49 49 48 48 46 45 44 43 43 43 42
64 63 62 62 62 61 59 59 59 60 59 58 56 54 52 50 50 49 49 48 48 48 47 46 46 45 44 44 44 42 41 41
61 61 60 60 59 58 59 60 59 59 59 57 54 52 51 50 49 49 48 48 47 46 46 46 45 45 46 43 43 40 39 39
58 56 57 58 58 59 60 59 59 58 56 56 53 53 52 50 48 48 48 47 47 46 45 44 44 44 43 37 38 36 35 36
55 57 57 58 59 59 59 59 58 57 54 53 55 53 51 49 47 47 46 45 45 44 43 43 41 46 37 36 35 32 34 34
54 56 57 58 58 58 57 59 58 55 54 55 52 48 48 48 48 47 46 44 43 41 41 41 39 39 37 36 34 32 32 32
55 57 58 58 59 59 58 59 57 57 56 52 49 48 48 48 47 46 44 43 41 40 40 39 37 39 38 37 34 30 30 30

GFSFLT1_sfc_temp_015.txt.gz
Temp
72 71 72 70 69 69 66 64 64 65 66 65 63 63 63 63 62 63 62 61 62 59 59 57 58 56 55 54 53 54 53 53
68 69 67 66 65 67 64 62 62 64 62 61 60 60 62 62 62 62 62 62 63 60 57 57 55 55 53 53 52 52 52 52
67 65 63 61 62 62 63 64 62 63 61 60 61 61 61 61 62 61 61 60 60 63 55 54 54 53 52 51 50 49 49 50
64 63 59 60 60 61 63 63 63 62 62 61 61 60 59 59 58 61 60 58 58 56 55 53 52 51 50 49 49 48 46 47
64 62 59 59 59 61 62 63 63 65 62 58 57 54 54 55 55 54 56 55 55 56 54 52 51 50 49 48 53 47 46 43
60 60 61 60 61 60 60 62 63 63 61 59 56 55 55 55 54 52 52 52 54 54 54 51 50 49 47 46 45 44 44 43
62 62 62 60 60 60 61 62 62 62 63 61 57 54 54 51 50 49 49 50 50 51 52 49 48 47 46 46 46 45 47 46
59 60 59 59 58 59 59 60 62 61 59 57 55 54 52 49 48 47 47 47 47 47 47 46 45 45 45 44 44 46 46 44
60 62 61 60 64 59 59 61 60 58 56 55 54 53 52 49 49 48 47 45 45 46 46 46 45 45 44 43 45 42 44 42
62 61 60 59 58 56 56 57 57 56 55 53 53 52 51 50 49 46 45 45 49 46 45 45 45 44 44 43 40 40 41 40
58 58 57 57 57 55 54 55 55 55 54 53 54 53 52 50 46 45 45 45 45 45 45 44 44 44 43 41 39 39 39 39
56 56 56 56 56 55 53 53 54 53 52 52 50 50 49 47 46 45 45 44 45 45 45 44 43 42 41 40 39 40 39 39
54 55 54 54 53 53 53 52 52 53 53 52 51 50 48 46 45 45 44 45 45 44 43 42 42 41 40 39 38 37 36 35
53 53 52 52 52 52 51 51 51 53 53 51 50 49 49 45 46 45 45 44 43 42 42 41 41 40 40 39 37 36 35 35
51 50 50 51 51 51 51 52 52 52 51 49 47 46 48 47 45 44 46 45 43 42 42 42 41 41 39 38 37 34 33 34
50 49 48 49 50 51 51 52 51 51 50 49 47 47 47 44 45 45 44 44 43 43 41 40 40 40 39 33 33 31 30 30
50 50 51 51 51 51 51 50 50 50 48 50 47 45 45 44 43 43 44 41 42 41 39 39 36 40 36 36 33 29 30 30
48 50 51 51 49 50 47 48 49 48 49 49 45 45 43 43 45 44 43 39 39 39 36 36 35 34 37 37 35 30 28 27
49 49 49 50 48 48 47 48 48 46 45 45 44 43 42 43 42 43 40 39 39 35 34 33 32 36 37 37 34 28 27 28

GFSFLT1_sfc_temp_018.txt.gz
Temp
64 65 64 64 62 61 61 61 61 62 62 60 58 59 59 59 58 59 60 59 59 56 55 55 54 53 52 51 50 51 49 49
62 62 63 62 61 60 59 59 60 61 59 57 57 56 58 57 58 59 58 58 58 57 55 53 52 51 50 50 49 48 48 48
60 59 57 57 58 58 59 60 59 59 58 55 56 56 56 56 59 59 57 56 56 57 51 50 50 49 49 48 47 46 46 48
59 59 55 55 56 58 60 60 61 59 59 59 58 58 56 54 54 53 54 56 55 52 51 50 49 48 46 45 45 45 43 44
59 58 56 55 55 57 59 61 61 61 59 57 56 53 53 52 50 50 50 52 52 52 51 48 47 46 45 45 47 43 43 41
56 59 58 58 57 57 57 59 60 59 57 56 54 52 51 50 49 49 50 50 50 50 49 46 45 45 44 43 43 42 42 41
57 58 58 57 56 57 56 58 58 59 56 55 53 51 50 48 47 47 50 49 46 46 47 44 44 43 42 42 42 42 41 41
55 57 56 55 54 55 57 57 55 55 53 52 51 49 48 49 51 50 48 46 44 44 44 43 43 43 43 42 42 44 44 43
54 55 54 54 55 54 54 55 54 54 53 52 51 50 51 52 51 49 46 43 44 44 44 44 44 43 43 41 40 39 41 38
54 55 53 53 53 52 54 54 53 53 52 51 50 50 52 51 48 44 43 43 46 44 43 43 43 42 42 41 38 38 37 37
53 53 53 53 51 50 51 52 53 52 51 50 51 50 49 46 44 43 43 43 44 43 43 42 41 41 40 39 37 37 36 36
52 53 53 51 51 51 50 49 50 50 50 50 48 48 47 44 44 43 43 43 44 46 43 42 41 40 39 37 36 36 35 34
52 52 50 49 49 50 50 49 49 50 50 49 48 47 46 45 44 44 43 45 46 44 44 43 41 40 38 37 35 35 34 33
49 49 49 50 50 50 49 49 49 49 48 48 48 47 45 44 44 43 44 43 43 43 41 42 41 40 38 36 35 33 32 32
47 47 47 48 48 48 48 48 47 48 48 46 45 44 43 42 42 43 43 41 41 43 42 42 40 39 37 35 34 31 31 31
48 47 46 46 47 48 47 46 47 47 46 44 43 43 43 43 42 40 41 42 41 41 41 39 37 37 37 32 32 31 30 29
47 47 48 48 47 46 46 46 46 46 44 43 44 43 43 42 41 40 39 40 41 41 39 37 35 38 36 36 35 29 30 29
46 46 47 46 45 46 44 45 46 44 43 43 42 42 41 40 40 40 40 38 38 37 36 36 32 33 37 37 35 31 28 27
46 46 45 45 44 45 44 45 44 42 41 41 41 40 39 39 39 38 38 37 38 35 33 31 31 33 35 34 34 27 26 26

GFSFLT1_sfc_temp_021.txt.gz
Temp
59 59 59 59 60 61 61 61 61 61 59 59 57 58 57 56 55 56 56 56 55 56 53 51 51 50 49 49 47 48 47 47
58 58 58 58 57 59 60 59 59 60 56 57 55 52 54 54 58 59 58 57 56 51 50 50 49 48 47 47 46 45 45 46
57 57 56 56 57 57 57 58 58 59 57 54 55 57 57 57 57 56 56 54 54 53 49 48 47 47 46 45 44 43 43 44
55 56 54 54 55 56 58 58 59 58 57 57 57 57 54 51 50 50 51 52 51 49 48 47 46 45 44 43 42 42 40 42
55 54 53 54 54 55 57 58 58 58 57 56 55 54 52 50 47 47 48 49 48 50 48 48 44 43 42 42 44 41 40 38
54 54 55 55 54 54 54 56 57 56 55 54 53 51 49 47 47 47 49 50 48 51 49 46 43 43 41 41 41 40 40 38
54 56 56 54 52 52 52 54 53 54 53 52 50 48 47 47 49 50 50 48 47 46 45 43 43 42 41 41 40 40 39 39
52 55 56 55 52 52 52 53 53 53 51 50 49 49 48 49 48 47 45 43 42 42 43 42 42 42 42 41 40 39 38 37
53 54 52 51 51 50 51 52 52 52 51 50 49 49 48 48 48 45 43 42 42 43 42 42 42 42 41 40 39 38 38 36
50 50 50 50 49 50 50 51 51 51 50 48 48 47 47 46 46 43 42 42 44 43 42 42 43 42 41 41 37 36 35 35
49 49 50 51 51 50 49 49 50 50 49 48 49 47 47 45 43 42 41 41 43 43 45 42 41 42 40 38 36 36 36 33
49 51 50 50 50 50 48 47 47 48 47 46 45 45 45 44 42 41 41 41 45 45 44 42 41 39 38 37 36 36 35 32
50 51 51 50 49 47 47 47 47 46 46 46 46 45 44 42 41 41 41 41 41 41 42 42 41 40 39 36 36 35 32 31
46 47 47 47 48 49 46 45 45 45 45 44 43 42 42 41 41 41 41 40 39 40 41 39 40 39 37 36 34 32 31 31
45 45 46 46 48 46 45 45 45 45 45 43 42 41 42 41 40 39 39 39 40 41 38 39 39 38 38 35 33 31 30 31
46 45 46 46 44 44 44 44 44 44 43 42 41 42 41 41 40 39 39 40 41 39 38 38 37 38 36 33 32 31 30 29
47 46 45 45 44 43 44 44 44 43 42 41 42 41 40 40 39 38 38 40 39 37 38 36 35 37 37 37 35 30 30 29
45 45 44 43 43 44 43 43 43 42 41 41 41 39 39 38 38 37 36 36 37 34 34 33 32 31 36 35 34 30 27 26
44 44 44 43 42 43 42 42 41 40 40 39 39 38 37 37 36 35 34 34 33 31 30 31 30 32 34 34 32 26 25 25

GFSFLT1_sfc_temp_024.txt.gz
Temp
57 57 59 59 60 61 60 60 59 58 57 56 56 57 54 54 55 57 55 57 55 55 53 50 49 48 47 46 46 46 46 45
55 55 57 58 59 61 61 60 59 58 55 55 53 52 52 54 54 56 56 55 52 49 48 47 47 46 45 45 44 44 44 44
55 54 55 56 57 58 57 58 58 57 55 53 53 52 56 55 53 50 51 50 50 50 47 46 46 46 45 43 42 42 42 42
53 53 52 53 53 55 57 57 57 56 55 53 52 52 51 49 48 47 48 49 49 48 47 46 45 45 43 41 41 40 39 40
53 53 53 52 51 53 54 55 55 55 55 54 53 50 48 46 46 46 46 48 49 49 47 47 44 43 42 41 43 40 39 37
52 53 53 51 51 50 52 54 54 53 53 52 49 46 45 45 45 48 50 50 50 48 46 44 42 41 41 40 39 39 39 38
54 54 54 51 52 54 52 54 52 52 51 50 49 47 46 45 46 49 48 45 44 44 44 42 42 41 40 39 39 39 38 37
50 52 53 53 52 50 50 51 50 51 50 50 49 48 47 47 47 45 44 43 41 41 41 41 41 41 41 40 39 38 37 37
50 53 52 49 49 49 50 51 50 50 50 49 48 48 46 46 46 44 43 41 41 41 41 41 41 42 41 40 39 38 37 36
49 48 48 48 48 48 49 49 50 50 49 47 46 45 45 44 44 42 41 41 43 42 43 44 44 43 40 39 37 36 36 35
47 47 47 48 48 47 48 48 48 48 47 45 46 44 45 44 42 41 40 40 41 45 44 42 41 39 40 38 37 36 35 34
46 47 48 48 48 49 48 46 47 46 45 44 44 43 43 42 41 40 40 41 43 41 41 40 39 40 39 37 36 35 33 33
46 47 48 49 48 47 47 45 47 44 44 44 43 42 42 41 40 40 40 39 39 39 39 41 42 39 37 37 34 35 33 32
44 45 46 48 46 46 46 46 44 45 44 43 42 41 40 39 39 40 40 38 37 38 42 41 37 37 36 35 34 34 32 31
43 43 44 44 45 46 45 44 44 44 43 41 40 40 39 39 39 39 38 37 37 40 40 39 37 37 36 35 34 32 31 31
43 44 44 45 46 44 45 44 43 43 42 41 40 39 39 39 38 38 37 37 38 39 38 38 36 36 36 33 32 31 30 29
45 46 46 46 44 42 43 43 42 41 40 39 40 39 39 38 37 36 36 36 39 38 37 34 31 36 36 36 33 29 29 28
45 46 46 43 42 42 41 41 41 40 39 40 39 39 37 36 36 35 35 36 37 32 31 31 30 31 35 35 34 29 27 26
46 45 44 41 41 41 40 40 39 38 38 39 38 37 35 35 34 34 33 32 32 30 29 30 29 31 34 33 32 26 25 26

GFSFLT1_sfc_temp_027.txt.gz
Temp
59 61 64 65 67 66 65 65 61 57 58 58 59 59 61 63 62 59 59 62 62 63 61 60 62 61 59 59 58 59 59 57
60 60 63 65 65 65 65 60 58 57 60 59 59 60 59 58 61 63 62 62 61 61 62 61 60 59 57 56 57 55 57 56
58 61 64 65 65 65 65 65 63 62 66 66 66 64 64 63 61 60 61 60 61 61 59 59 58 59 56 55 54 54 55 54
59 61 63 64 64 65 66 67 66 67 65 65 64 63 61 61 61 60 60 60 60 59 58 58 57 57 55 54 53 51 51 53
61 61 61 62 61 63 65 65 65 64 64 65 63 65 63 60 60 61 61 57 58 59 58 57 56 57 54 54 55 52 51 49
60 61 62 61 61 62 63 64 64 63 63 62 62 59 59 59 59 58 58 59 58 57 57 55 55 56 54 53 53 52 52 49
60 61 61 62 62 62 61 62 61 61 62 61 60 59 58 60 60 60 60 59 58 56 55 54 54 53 52 52 51 50 50 49
60 61 61 61 59 60 61 62 60 61 61 61 61 60 59 59 59 58 57 57 56 54 53 52 53 52 52 52 51 50 50 49
59 60 61 60 59 60 60 61 60 61 61 60 59 57 58 58 57 57 56 55 55 54 53 53 53 52 52 51 51 50 49 48
59 59 58 58 58 58 59 60 60 59 59 57 57 57 56 56 55 54 53 52 53 52 52 52 52 52 51 50 49 48 48 48
57 57 56 57 58 56 57 58 58 58 58 56 56 55 55 54 54 53 52 53 53 52 53 52 51 49 48 48 48 48 46 47
55 56 56 57 57 57 57 56 57 56 55 54 54 54 54 54 53 53 52 52 54 52 50 50 48 46 48 48 47 46 45 45
55 56 56 56 56 56 53 55 55 54 54 54 54 54 54 53 52 52 52 50 50 49 48 48 48 48 48 46 45 45 43 42
54 54 55 55 54 54 54 54 53 54 56 55 54 52 51 50 50 50 50 49 48 48 47 47 45 44 45 45 43 42 41 41
53 53 54 53 53 54 52 52 53 54 54 53 51 50 49 49 49 49 48 47 46 47 46 45 44 45 44 43 41 41 40 40
51 52 52 52 52 52 51 52 53 52 52 50 49 49 49 48 48 47 46 46 46 44 41 42 43 43 43 41 41 39 39 38
51 51 51 52 52 51 50 51 51 50 50 48 48 48 47 47 46 45 45 44 45 44 41 41 40 41 36 36 37 38 37 35
51 50 52 53 51 50 50 51 50 48 47 47 47 46 46 45 45 45 44 43 43 42 41 40 39 39 35 35 34 37 35 34
51 51 51 51 51 50 49 50 48 46 46 46 45 45 44 44 43 43 43 43 42 41 39 39 38 37 33 33 32 35 34 33

GFSFLT1_sfc_temp_030.txt.gz
Temp
71 76 80 80 79 76 74 73 67 65 58 60 64 65 67 70 70 67 67 69 69 70 69 68 69 69 67 65 64 66 65 65
70 70 75 76 75 74 74 69 64 67 64 63 66 65 66 64 70 70 69 69 69 69 71 69 68 66 64 63 63 62 63 64
68 69 73 73 73 73 73 72 73 74 75 74 75 73 73 73 71 69 69 69 69 69 67 68 66 66 64 62 61 60 61 62
69 69 70 71 72 72 73 76 76 76 76 74 73 72 71 70 70 70 69 68 69 67 67 67 66 65 63 61 60 58 56 59
71 71 71 73 74 75 77 76 76 74 73 74 72 75 73 72 72 71 70 67 67 68 66 65 64 64 61 61 62 58 57 54
71 72 73 73 72 73 75 74 75 73 73 73 72 70 69 69 69 67 68 68 66 66 65 64 62 63 62 59 58 57 58 55
72 73 73 73 73 72 72 73 72 72 71 70 69 67 67 69 69 67 68 68 67 66 65 63 62 61 60 59 58 57 55 55
70 70 71 71 69 69 70 71 69 70 69 69 68 67 66 66 65 66 64 65 65 64 63 61 61 61 58 58 57 56 55 53
71 71 71 70 69 70 71 71 69 70 69 67 67 66 70 68 65 64 63 63 62 62 61 61 60 60 59 58 56 55 54 52
70 70 70 69 69 68 68 69 69 67 65 66 66 67 64 63 62 62 62 61 61 60 60 59 59 59 58 56 55 53 52 51
70 69 67 69 69 66 67 68 66 64 64 64 66 63 64 64 62 60 59 60 60 59 58 58 58 57 57 54 53 53 50 51
69 68 67 67 67 67 66 65 64 65 65 63 62 62 63 63 61 59 59 58 58 57 56 55 55 55 55 53 52 51 50 49
68 66 66 65 65 66 63 64 65 63 63 62 61 62 62 60 59 58 58 56 56 55 55 54 54 53 52 50 49 49 48 47
66 65 64 64 64 64 64 63 62 63 62 62 62 61 59 58 57 57 56 55 54 54 54 51 49 50 50 50 49 47 47 47
64 64 64 64 63 63 62 60 62 62 62 62 60 59 58 57 56 55 54 54 53 53 52 50 49 50 49 49 48 47 47 47
63 63 64 63 62 62 62 59 61 61 60 60 58 58 57 56 54 54 53 52 52 52 50 48 48 48 49 47 47 46 46 45
62 63 63 62 62 62 56 60 60 59 58 57 57 56 55 54 53 51 51 51 51 51 49 48 47 48 35 36 37 44 44 43
62 62 62 62 61 57 59 59 58 57 57 56 55 53 52 52 52 51 51 50 50 48 47 47 46 46 35 34 34 42 42 41
62 63 61 61 60 59 59 59 57 56 55 54 53 52 51 51 51 50 50 50 49 48 47 47 46 44 34 33 33 41 41 40

GFSFLT1_sfc_temp_036.txt.gz
Temp
80 81 81 82 79 75 75 71 67 65 65 65 66 65 65 64 64 64 64 65 65 64 63 61 61 61 59 57 55 55 53 53
79 79 78 78 75 74 73 68 66 66 67 66 66 64 65 64 66 66 66 66 66 64 63 62 61 59 57 57 54 52 51 52
75 76 77 76 73 72 69 69 67 70 72 70 69 67 66 67 67 66 66 66 66 65 61 60 59 57 56 55 53 50 50 51
73 75 74 74 72 71 68 69 69 70 70 72 70 69 66 65 64 63 65 66 66 64 62 60 58 56 54 53 52 51 47 49
75 73 73 73 70 69 70 69 72 73 72 70 67 67 64 65 64 65 64 64 64 65 63 60 57 56 54 53 56 51 49 46
76 74 75 72 68 66 69 71 73 72 72 70 68 67 65 65 63 62 63 61 63 63 62 59 57 55 54 53 52 51 50 47
77 76 74 72 71 71 69 70 73 72 71 70 68 65 64 62 62 60 61 60 60 60 60 56 55 54 53 52 52 51 48 47
75 72 72 72 72 72 71 73 71 70 69 68 66 65 63 62 61 59 59 58 56 55 55 54 53 53 53 52 50 50 48 46
73 73 72 72 71 71 71 72 70 69 67 66 65 64 61 61 59 59 57 55 55 56 54 54 53 53 51 51 49 48 49 45
73 73 72 70 70 68 68 70 70 68 66 64 62 61 60 57 59 59 57 56 58 54 53 52 52 51 50 49 47 47 47 44
72 73 71 71 70 68 68 69 69 68 65 62 61 60 59 59 59 57 56 55 55 53 52 51 51 50 50 48 46 46 45 43
72 73 73 72 71 69 68 69 69 65 64 62 59 59 58 59 58 57 55 54 54 53 52 51 50 50 49 46 45 46 45 43
73 73 72 71 69 68 67 66 66 65 64 61 58 59 58 57 58 57 55 53 53 52 52 51 51 50 47 46 44 46 43 42
74 73 72 70 69 67 66 65 65 65 64 60 58 58 59 57 57 56 55 54 52 51 51 50 49 48 46 46 45 44 43 42
74 73 71 69 69 67 66 64 64 64 62 59 58 57 57 57 57 55 53 53 51 50 50 50 49 48 47 47 46 43 42 42
73 72 69 69 68 67 67 64 63 61 60 57 55 57 58 57 54 53 52 51 51 51 50 49 48 47 48 43 43 40 39 38
72 72 72 70 68 66 65 63 61 58 57 56 57 57 57 55 53 52 50 50 50 50 48 48 45 48 37 37 38 36 38 37
71 70 70 69 68 65 63 61 58 57 56 56 57 56 55 53 53 52 50 48 47 46 46 46 44 41 37 37 35 35 34 34
70 70 69 69 68 64 61 60 58 56 55 55 56 55 53 52 51 50 48 48 46 45 44 44 44 44 37 36 35 32 33 34

GFSFLT1_sfc_temp_039.txt.gz
Temp
72 73 74 71 67 70 66 64 61 59 60 59 58 58 57 57 57 57 59 60 60 57 57 57 57 55 53 53 51 50 49 48
73 71 71 69 67 68 65 62 60 60 59 58 58 56 56 57 58 60 60 60 61 57 56 56 55 53 52 52 50 49 48 47
68 68 67 69 67 65 64 63 62 62 62 61 61 59 58 58 59 59 60 60 60 59 56 54 54 53 51 50 49 47 46 46
67 69 64 67 67 64 63 62 62 64 64 64 60 59 57 56 56 56 59 60 60 58 57 55 54 52 50 49 48 47 44 45
69 67 64 65 62 64 66 64 65 65 65 65 61 57 57 56 56 56 57 59 60 60 58 55 53 51 50 49 51 47 45 43
67 66 66 64 64 64 65 65 67 65 65 67 61 57 57 56 56 56 56 57 58 59 55 52 51 50 49 48 47 47 46 43
68 67 65 63 65 65 64 62 63 65 67 63 60 59 57 57 57 56 57 54 52 53 53 50 49 49 48 47 46 46 45 44
65 64 64 63 60 60 61 62 63 65 65 60 58 57 56 55 53 51 51 53 51 50 52 50 48 48 48 47 45 44 44 42
64 65 64 63 63 62 63 65 66 61 60 59 58 57 54 53 52 51 51 52 53 52 51 50 48 48 47 46 44 43 43 41
62 62 63 63 65 61 63 63 62 60 59 56 55 54 53 52 52 53 53 52 55 51 50 50 49 47 48 46 42 42 42 41
62 62 61 61 61 61 60 60 60 59 57 55 55 53 53 53 54 54 54 53 53 50 50 48 47 47 46 44 42 42 42 40
61 61 62 62 61 60 60 60 58 56 57 55 52 52 53 55 55 54 53 52 53 50 51 48 47 46 45 43 42 43 41 39
62 62 62 62 61 60 59 59 58 60 58 55 52 53 56 56 55 54 53 52 51 51 49 48 48 46 45 43 42 41 40 39
63 62 63 62 61 61 59 58 57 60 58 56 55 55 55 54 54 54 52 51 48 49 48 47 46 45 44 44 42 41 41 40
64 64 64 66 64 63 60 58 59 57 55 53 53 53 54 54 53 53 49 49 48 49 47 47 46 45 46 45 44 39 38 38
62 62 59 59 58 58 59 59 57 58 56 54 52 53 53 53 53 51 49 49 49 48 47 46 45 44 45 42 41 38 37 37
63 60 59 60 58 58 58 59 57 55 54 53 53 52 53 50 49 49 48 48 47 46 46 46 44 46 39 40 38 35 36 35
62 63 60 60 59 58 54 55 55 54 53 53 53 51 50 50 50 49 48 46 46 45 44 44 43 39 38 38 37 35 34 33
60 59 60 57 55 54 54 54 53 52 51 51 50 49 49 47 47 46 46 45 44 43 42 42 42 40 37 37 36 32 31 31

GFSFLT1_sfc_temp_042.txt.gz
Temp
70 69 69 68 65 68 65 64 60 59 59 58 57 57 56 56 55 56 58 58 58 56 55 54 53 52 51 50 49 48 47 46
70 69 69 66 65 64 63 60 58 60 58 56 55 55 54 55 55 57 58 58 58 55 54 53 52 51 50 50 48 47 45 45
67 68 67 65 64 63 63 62 60 60 60 57 57 55 55 56 56 56 58 57 56 55 53 52 52 50 49 49 47 45 44 44
64 65 64 65 63 62 62 61 60 61 60 59 57 57 55 54 53 53 55 57 57 56 54 52 51 50 49 47 46 45 43 43
65 64 63 64 61 63 63 62 61 61 61 60 58 59 56 54 53 54 54 56 57 57 55 52 50 49 48 47 48 45 43 41
65 63 66 65 61 61 61 62 63 65 62 62 60 57 56 53 53 53 53 54 55 55 52 50 49 47 47 48 48 44 43 42
66 62 65 62 61 61 61 63 65 65 62 61 60 58 54 53 52 53 52 51 50 51 51 49 49 47 47 45 43 43 42 41
59 59 61 60 60 60 61 64 63 62 60 60 58 57 56 56 55 51 49 48 49 49 50 50 49 49 46 45 44 42 41 39
61 61 60 61 61 61 62 62 60 59 59 58 58 57 54 51 53 53 52 51 51 51 50 51 49 48 46 43 43 42 40 39
61 61 60 60 59 59 60 60 60 57 56 55 56 55 55 53 52 53 52 51 52 50 50 49 49 48 46 44 42 40 39 39
58 59 59 59 60 58 58 60 59 58 57 56 55 54 54 53 53 52 52 51 51 51 50 49 49 47 44 42 41 41 40 38
59 59 60 60 59 58 57 61 60 59 57 52 52 51 51 54 53 52 51 50 51 50 49 48 48 44 44 42 41 42 40 39
60 60 60 59 60 59 58 59 57 56 55 54 52 54 55 54 53 52 51 51 51 48 47 47 46 45 43 42 40 40 39 38
59 59 60 61 60 60 59 56 56 56 54 55 55 54 54 52 52 51 49 48 48 47 47 46 46 44 43 42 41 40 39 39
60 60 61 61 61 60 58 56 56 55 55 56 54 53 53 52 51 48 48 47 45 46 46 45 45 43 44 44 43 40 39 38
58 57 56 55 56 58 56 55 53 54 53 54 52 52 50 50 48 47 46 46 47 46 45 46 45 44 45 43 42 38 36 36
57 57 57 56 55 55 54 52 51 52 51 49 50 51 50 49 47 47 47 47 47 46 46 45 43 45 42 41 39 36 37 35
56 56 56 55 55 54 50 50 51 50 52 51 50 49 47 46 47 46 46 45 46 45 43 43 42 42 40 40 38 35 34 33
51 51 50 49 50 50 51 51 49 49 49 48 47 45 45 45 44 44 43 44 43 42 42 41 40 41 38 38 37 33 32 32

GFSFLT1_sfc_temp_045.txt.gz
Temp
64 65 65 66 64 64 65 62 59 59 58 57 57 56 56 55 55 55 56 56 56 55 53 52 52 50 49 49 47 46 45 45
65 65 66 65 61 61 62 59 58 59 58 56 55 54 54 54 54 56 57 56 56 54 52 51 50 50 49 49 47 46 43 43
64 65 65 63 62 61 59 60 58 59 60 56 56 54 54 54 55 55 56 56 55 54 52 51 50 49 48 47 46 43 43 43
64 63 63 62 61 60 60 60 59 60 59 57 54 54 53 52 52 52 54 55 55 54 52 50 49 48 47 46 45 45 42 42
65 64 62 62 62 63 63 61 60 60 60 58 55 54 52 53 52 52 53 54 54 54 52 50 49 47 46 46 47 43 42 41
63 63 64 64 62 61 61 60 60 61 61 59 55 54 53 52 52 52 52 52 53 52 50 49 48 47 45 45 46 43 42 41
63 64 63 62 58 59 58 59 59 61 60 59 56 54 52 52 50 50 49 48 48 49 49 47 47 47 46 44 45 44 42 40
58 58 60 59 58 59 59 59 59 61 62 61 57 56 54 53 52 51 48 46 46 47 48 47 49 48 47 45 45 44 41 41
57 59 60 59 59 59 59 60 60 62 62 60 56 54 55 55 54 53 50 50 49 49 49 48 48 49 47 46 44 42 41 39
59 59 59 59 59 59 59 60 61 59 58 55 52 52 52 50 52 52 51 50 50 48 47 47 48 48 48 46 41 41 39 38
56 58 58 59 60 60 59 59 57 56 53 52 53 52 54 53 52 51 51 50 48 47 48 47 48 48 45 42 39 40 38 37
57 58 59 58 57 56 58 57 55 54 54 52 51 52 52 53 52 51 50 50 49 49 47 48 47 45 42 41 40 41 40 38
57 58 57 56 57 57 57 57 56 56 53 51 51 52 53 52 51 50 49 48 50 48 47 46 46 44 42 41 41 41 38 37
55 55 56 58 58 58 57 55 55 52 52 51 51 51 51 50 49 50 48 47 45 44 44 46 45 43 43 41 40 38 38 37
54 54 55 56 57 55 53 52 52 52 52 51 50 49 49 49 48 48 47 47 45 46 47 46 45 45 42 41 40 38 38 37
55 54 53 54 53 52 52 51 50 51 51 51 47 48 49 49 47 45 45 46 46 47 46 45 44 43 43 41 41 38 36 35
54 55 55 53 53 51 51 49 49 50 49 48 49 50 49 46 46 45 45 45 47 45 43 44 43 44 41 41 39 35 35 34
50 51 51 51 50 49 47 47 48 48 48 49 48 47 45 45 45 45 44 43 42 42 43 42 41 40 40 41 39 34 33 32
45 45 45 45 46 47 47 48 47 46 46 46 44 43 42 43 44 42 41 41 40 39 38 38 37 39 39 39 38 32 31 32

GFSFLT1_sfc_temp_048.txt.gz
Temp
63 63 62 61 60 61 61 60 59 58 57 57 56 56 56 55 55 55 55 55 55 53 52 52 51 50 48 48 47 46 45 45
62 62 61 60 59 60 60 59 57 57 56 55 54 54 56 54 54 55 55 55 55 53 52 51 50 49 48 48 46 45 44 43
61 60 60 60 60 60 59 59 58 58 59 55 55 54 54 55 54 54 55 54 54 53 51 50 49 48 47 46 46 43 43 42
60 60 60 60 59 60 60 59 59 59 59 56 53 54 54 53 52 52 54 54 54 53 51 49 48 47 46 45 44 44 42 42
62 61 60 60 61 61 61 60 59 59 58 59 54 54 52 53 52 51 55 53 53 52 51 49 47 46 45 45 46 43 44 42
61 62 63 62 60 58 59 58 58 59 58 58 55 53 54 52 51 53 53 50 51 51 49 47 46 45 45 46 45 43 45 41
63 63 61 59 56 56 57 58 58 59 59 57 56 55 53 52 51 51 48 48 48 47 47 46 46 46 44 46 45 44 44 42
59 58 59 58 56 57 57 57 57 59 58 58 59 57 54 54 53 50 47 45 44 45 47 46 46 47 45 45 45 45 45 42
58 60 60 59 57 58 59 58 59 59 59 59 59 57 55 53 53 53 50 47 47 49 45 48 46 46 46 46 45 43 41 41
59 57 58 57 57 58 59 60 60 59 59 59 56 54 53 52 52 50 49 48 48 48 46 46 46 47 46 47 44 43 39 37
54 54 55 56 58 58 59 59 59 60 59 56 54 53 53 51 51 50 49 49 47 46 46 46 47 46 47 45 42 41 38 37
53 54 56 57 57 57 58 58 59 54 53 52 51 50 51 52 52 51 50 48 47 46 47 46 46 46 45 42 39 41 39 37
53 54 54 55 57 57 57 57 57 55 51 50 50 51 52 51 49 48 48 48 48 48 46 46 46 46 43 40 41 41 39 38
53 53 53 55 55 55 55 55 54 50 51 50 50 50 50 47 47 48 48 48 47 47 46 46 46 43 43 42 41 40 38 37
53 52 53 54 54 53 52 51 50 50 50 49 48 48 49 48 48 48 48 47 45 45 45 46 45 44 44 41 41 38 37 37
53 53 51 51 51 50 50 49 48 49 48 47 46 48 48 46 45 45 44 45 45 46 44 43 43 44 44 41 40 37 35 35
48 51 52 51 51 49 48 47 47 48 46 46 47 48 47 45 44 44 45 45 45 44 42 42 42 44 41 41 39 35 35 33
44 44 44 45 46 45 44 44 46 46 46 46 46 45 44 45 46 45 44 43 42 41 41 41 39 39 40 40 39 35 34 33
41 41 42 42 43 44 44 45 44 43 42 44 45 45 44 44 43 42 41 41 40 40 38 37 36 37 38 39 38 35 33 32

GFSFLT1_sfc_temp_051.txt.gz
Temp
66 66 67 69 68 68 68 68 67 66 66 66 66 65 66 66 64 65 65 66 64 65 64 61 61 63 62 62 61 61 61 61
67 67 67 67 67 67 68 67 66 66 66 63 64 62 63 62 62 63 64 66 65 64 64 62 63 62 61 60 59 59 59 59
66 66 67 66 67 67 68 68 68 67 68 66 67 64 63 64 62 62 63 64 64 63 63 62 62 62 59 59 59 59 59 58
65 65 65 67 66 66 68 69 68 68 68 67 64 63 62 60 60 61 62 63 62 63 62 62 61 61 60 59 59 59 57 56
67 66 66 66 67 68 68 68 67 67 66 66 64 64 63 62 61 62 63 62 59 59 62 61 60 60 58 59 59 57 55 55
67 67 69 69 68 65 66 67 66 66 65 66 64 63 65 60 59 60 61 59 57 59 60 59 59 60 58 57 55 55 55 54
69 71 70 69 67 65 65 66 66 66 65 65 63 62 61 60 60 60 60 60 60 59 59 59 58 57 56 51 47 50 50 47
67 68 68 68 65 64 64 66 66 65 64 63 62 62 62 58 60 59 55 57 58 57 57 55 53 51 49 46 53 50 47 53
67 68 69 68 66 65 65 66 66 65 64 63 62 63 62 62 59 58 57 57 57 56 56 51 50 50 52 50 50 49 49 50
67 68 67 67 66 64 65 66 66 64 64 64 63 63 62 61 59 58 56 53 54 52 52 52 50 50 50 47 46 50 48 48
64 64 65 66 67 66 65 66 66 66 65 65 64 63 62 62 58 55 53 54 51 51 53 51 50 49 48 47 48 48 48 50
62 64 65 66 66 65 65 66 67 66 66 65 62 60 59 58 55 54 52 51 50 51 50 50 47 45 46 47 46 47 49 50
62 63 63 64 64 65 66 66 65 65 64 60 59 57 55 54 53 52 51 50 51 50 48 47 47 47 47 45 47 51 50 48
63 62 62 62 63 63 63 63 64 64 60 58 56 54 55 53 51 51 53 51 49 48 47 46 49 49 48 50 51 51 50 49
62 62 62 62 62 63 62 60 58 56 55 55 53 53 53 52 51 51 50 51 51 51 51 46 47 47 50 50 51 49 49 49
59 60 60 61 60 59 58 56 56 55 52 52 51 52 51 51 51 47 47 47 51 47 48 45 46 47 46 48 50 49 49 48
53 54 57 57 56 56 54 53 53 54 53 50 49 48 49 46 46 48 50 45 50 46 44 45 44 44 42 41 42 48 48 47
48 49 50 51 51 51 50 51 52 51 50 50 48 47 46 46 47 46 48 45 45 43 42 42 43 46 41 40 39 46 47 47
46 47 48 48 50 49 50 50 49 49 49 47 47 46 44 47 46 43 42 43 43 43 45 46 46 46 39 38 37 46 46 46

GFSFLT1_sfc_temp_054.txt.gz
Temp
70 72 74 76 75 75 75 75 74 74 74 73 74 75 76 77 75 70 70 74 72 72 74 72 69 70 65 66 66 70 71 72
74 74 74 74 74 73 74 73 74 75 75 74 74 72 74 74 76 74 70 73 71 72 73 70 69 67 65 63 67 66 67 69
72 74 75 74 73 73 74 76 75 76 77 77 77 76 76 75 73 67 68 69 71 72 71 70 70 69 62 63 67 67 68 68
73 73 73 73 73 73 75 76 77 77 77 78 77 76 74 71 68 68 65 66 70 70 71 70 70 65 60 64 67 66 65 65
75 74 74 74 74 76 77 78 78 78 77 77 74 74 72 73 69 65 65 66 67 71 71 68 65 65 65 67 68 67 66 62
77 76 76 77 76 76 77 78 78 78 77 75 74 73 76 77 68 67 65 65 69 68 66 64 63 68 67 67 65 64 57 50
80 80 80 79 79 77 76 76 77 77 76 74 73 72 73 73 69 68 67 68 67 66 63 61 64 67 66 65 60 52 51 51
78 79 79 79 78 76 75 75 75 76 75 74 73 72 71 71 70 68 66 65 61 60 61 64 66 66 59 51 57 58 54 49
80 80 80 80 78 76 75 75 75 76 75 73 73 70 70 70 70 68 67 62 56 61 60 63 56 55 54 59 55 52 53 48
80 82 82 81 80 76 75 76 77 77 71 72 70 68 68 68 68 66 65 60 56 53 54 52 56 59 57 49 48 46 48 53
77 79 80 81 81 79 76 76 76 77 75 72 70 68 68 68 65 63 60 54 52 51 48 51 57 52 49 51 50 47 48 47
75 76 78 78 78 78 76 76 77 77 76 74 71 71 70 66 62 61 57 54 52 51 52 52 49 48 47 46 46 48 46 52
75 75 75 76 75 76 75 76 76 77 76 74 71 66 63 60 57 56 53 51 51 55 53 49 49 48 46 48 45 47 51 55
76 75 75 74 74 75 75 74 74 74 73 69 61 57 55 54 52 51 51 51 52 52 49 50 49 46 48 45 46 51 55 55
75 74 74 73 73 73 72 68 64 63 62 59 55 54 53 53 52 52 52 51 51 49 49 49 48 47 46 47 50 52 53 55
71 73 73 73 70 68 68 64 61 59 56 54 53 54 55 55 55 57 54 52 51 53 49 48 45 45 49 48 48 48 51 52
66 68 69 66 66 65 63 62 62 59 55 53 53 54 54 53 55 54 50 51 52 50 46 44 45 47 42 41 43 52 52 53
61 62 63 63 62 62 61 61 61 59 56 53 54 54 52 53 53 52 50 50 48 46 45 45 45 45 42 41 40 50 52 52
59 60 60 61 61 60 60 61 59 57 55 54 53 53 54 53 51 48 47 45 46 46 46 51 52 53 41 40 38 49 51 52

GFSFLT1_sfc_temp_057.txt.gz
Temp
73 77 78 79 75 72 72 72 71 72 72 74 75 75 75 78 78 78 75 75 74 73 75 75 74 72 70 71 69 70 71 72
74 75 76 78 76 73 73 71 74 76 75 74 73 72 75 76 79 77 73 73 75 72 74 73 71 71 70 68 67 65 67 70
75 75 76 76 75 75 74 75 76 78 79 78 78 77 77 76 77 77 73 72 75 73 73 73 71 71 69 67 65 63 65 69
73 73 75 76 75 75 77 77 78 78 80 81 80 79 79 77 77 76 71 69 65 63 65 70 71 71 68 66 66 62 63 67
76 75 76 76 75 77 77 78 79 80 80 79 78 76 75 76 76 76 70 64 62 62 62 64 71 72 66 63 65 64 67 65
78 77 78 79 78 77 77 79 80 81 81 79 78 75 77 79 77 75 69 66 65 65 65 65 69 67 64 62 63 66 68 66
82 82 81 81 80 79 78 78 79 81 80 79 77 76 75 76 77 69 67 67 66 67 68 63 62 62 61 62 67 66 59 55
82 82 81 81 79 79 79 79 79 80 79 79 78 76 75 74 70 71 69 67 67 65 67 59 58 58 60 64 58 56 59 57
84 84 83 82 81 80 79 79 79 80 79 77 75 76 75 74 74 74 72 70 66 66 58 57 55 52 51 52 53 59 54 51
84 85 85 84 83 81 80 80 80 80 78 76 70 71 74 72 72 70 69 68 65 63 57 55 50 50 52 53 51 48 48 50
84 86 85 86 85 84 81 80 79 79 76 75 74 72 70 70 68 66 65 64 63 58 54 52 50 51 52 52 49 49 45 46
82 83 86 87 87 85 82 80 81 80 79 75 70 68 69 69 64 64 63 61 57 55 52 50 49 50 49 46 46 45 45 45
82 82 82 83 83 83 82 80 80 81 81 76 70 68 64 63 61 59 57 55 53 52 52 51 50 47 46 47 46 46 44 46
81 79 79 80 80 80 80 79 79 81 80 64 63 60 57 56 53 52 52 51 51 52 50 48 48 49 48 48 47 45 46 49
81 80 79 79 78 78 77 73 74 74 67 62 57 55 54 53 52 52 51 52 51 50 50 49 47 45 47 46 46 46 48 50
80 80 79 77 76 75 68 64 62 61 58 56 53 54 55 55 55 53 52 51 50 51 50 49 48 47 46 45 46 47 47 48
78 79 77 74 72 71 67 62 60 59 56 55 56 57 59 58 57 56 55 53 53 51 48 46 44 47 42 41 43 46 50 52
73 74 72 70 69 68 66 63 62 60 59 59 60 60 57 57 58 57 56 53 53 51 47 49 48 49 42 42 40 50 51 51
69 69 68 68 68 67 66 66 63 61 60 59 59 58 57 57 56 55 53 53 52 51 51 51 51 54 42 41 39 49 50 51

GFSFLT1_sfc_temp_060.txt.gz
Temp
70 67 67 66 64 63 63 63 62 63 63 65 66 63 70 69 69 69 69 69 68 67 67 66 66 64 62 61 61 62 62 63
74 70 70 69 66 64 65 64 65 65 64 64 64 65 68 68 68 70 68 68 68 66 66 66 65 63 61 61 60 59 60 62
71 72 71 68 65 66 67 67 67 68 68 69 69 69 69 69 70 69 68 68 68 68 66 64 64 61 61 60 60 57 59 60
69 70 70 68 66 67 69 69 68 68 72 73 72 70 69 68 68 68 68 66 64 66 66 63 62 62 60 60 59 59 57 59
70 70 70 70 69 70 70 70 71 71 73 73 70 70 68 69 69 70 69 66 64 63 62 61 60 60 59 60 61 59 58 56
72 71 71 73 73 71 71 71 73 74 73 73 69 70 69 69 68 68 65 63 63 63 62 61 61 60 60 59 57 56 58 56
75 74 74 74 74 72 72 73 74 75 74 72 71 70 69 69 68 66 65 63 62 63 63 61 61 59 57 55 55 54 53 51
76 75 74 75 73 71 72 73 73 75 74 74 73 70 69 68 67 65 63 62 61 62 62 61 58 57 55 55 53 50 51 49
77 78 76 76 74 73 73 73 73 75 74 73 71 70 70 67 64 66 64 64 62 62 62 58 57 55 52 51 50 50 49 46
80 80 78 77 76 74 72 74 74 75 75 73 69 67 68 69 67 68 64 63 61 60 58 55 52 51 51 51 50 46 46 45
80 82 79 79 79 76 75 75 76 76 76 72 70 68 68 68 66 65 62 61 59 59 56 52 50 50 50 48 46 46 45 45
79 80 82 81 80 79 76 77 77 77 77 71 69 68 68 63 63 62 61 58 57 56 53 50 50 48 48 46 45 45 44 44
79 79 80 81 80 80 78 77 77 77 75 71 67 64 63 61 59 58 57 55 54 52 50 49 49 47 46 45 44 45 44 44
78 77 77 78 79 78 76 76 76 70 67 65 61 58 56 54 52 51 51 50 50 50 49 47 47 46 46 45 46 45 44 45
77 76 76 76 76 76 75 71 64 66 63 60 55 54 52 51 51 50 50 50 49 48 48 47 47 46 46 46 45 44 45 46
76 75 74 75 73 67 65 62 61 60 57 54 52 52 52 52 50 50 50 49 49 48 47 46 46 46 46 45 46 44 45 45
78 77 75 73 68 65 61 58 57 57 54 53 54 54 54 53 51 50 49 49 49 49 46 45 44 46 41 41 43 44 46 46
75 76 73 71 66 62 59 57 57 56 55 55 57 57 55 54 54 53 51 49 48 46 44 44 45 46 41 41 40 43 43 42
72 71 67 67 66 62 60 60 59 57 58 57 57 55 55 54 53 51 50 50 48 47 46 46 46 49 41 39 39 41 41 42

GFSFLT1_sfc_temp_063.txt.gz
Temp
59 58 58 57 56 58 58 59 59 59 59 60 58 57 59 61 62 63 64 65 65 64 63 62 62 61 59 58 58 58 58 59
61 59 58 56 56 57 57 57 58 59 58 57 58 58 59 61 62 65 65 65 65 63 63 62 62 61 58 58 57 57 57 59
60 60 58 57 57 58 58 58 58 59 60 61 61 61 62 64 63 63 64 65 65 64 64 62 61 59 57 57 56 54 57 58
59 61 60 58 57 58 60 60 60 61 62 62 62 63 62 62 63 63 63 64 65 64 63 63 61 59 58 57 58 57 55 57
63 62 60 58 59 61 62 63 63 63 65 63 62 62 62 63 61 62 62 64 63 62 61 61 61 61 60 58 58 57 56 53
65 64 63 62 63 63 64 64 64 65 65 65 65 64 64 65 64 62 61 62 62 61 61 58 58 58 57 57 57 55 54 52
66 67 67 64 64 65 65 65 65 66 66 66 65 66 64 63 63 62 62 62 62 61 60 59 59 58 57 55 55 54 52 50
65 65 66 67 64 64 65 65 65 66 67 67 67 66 67 65 61 61 60 59 59 59 59 57 57 55 54 54 54 53 51 49
67 67 67 67 68 66 66 66 66 68 68 69 70 69 66 64 63 61 62 61 60 59 59 58 57 54 52 52 51 50 50 48
69 68 69 68 69 68 67 67 68 70 69 68 68 66 65 64 63 61 60 60 59 58 59 57 54 53 52 51 50 48 46 45
71 70 69 71 71 70 68 69 69 70 70 68 68 66 66 65 60 59 60 59 59 57 55 53 51 51 51 49 46 45 45 45
68 73 72 72 73 71 68 68 69 70 70 70 68 65 63 60 61 61 59 57 57 55 53 51 50 49 48 46 45 45 45 45
68 67 71 73 73 73 71 70 70 69 70 68 64 61 60 59 59 58 57 55 54 52 51 50 49 47 46 46 45 45 44 44
67 68 67 68 71 72 72 68 66 63 62 61 59 57 55 54 52 53 52 52 50 50 49 48 46 46 46 45 45 44 45 45
66 66 66 66 62 60 62 64 64 62 58 57 54 53 51 50 51 50 50 49 48 48 47 47 46 46 46 46 45 44 44 45
67 65 64 59 58 57 56 55 55 55 54 52 50 50 51 50 49 48 48 48 47 47 46 46 45 45 46 44 45 44 44 44
67 68 66 61 57 54 54 53 52 53 52 50 51 50 49 49 48 48 48 47 47 46 45 44 44 45 41 42 43 44 45 44
65 66 64 60 56 55 52 52 52 52 52 52 52 52 50 49 49 49 48 46 45 42 41 41 41 43 41 41 40 41 40 38
62 63 60 58 56 53 53 54 54 54 54 54 53 52 51 50 50 46 44 43 41 41 41 41 42 44 39 39 37 37 35 36

GFSFLT1_sfc_temp_066.txt.gz
Temp
55 55 55 58 59 59 58 59 59 58 59 59 60 58 60 61 62 61 62 62 63 62 61 60 60 59 57 57 57 56 56 56
56 56 55 56 57 57 58 58 57 57 57 58 59 60 59 60 59 61 61 62 63 61 60 59 59 59 59 57 56 56 54 54
56 54 54 53 54 55 55 56 56 59 60 60 60 58 56 58 59 59 61 62 62 62 61 60 59 57 57 56 56 53 54 56
55 54 53 52 53 54 55 56 56 58 59 59 57 56 57 57 60 61 59 61 63 62 61 60 61 59 57 57 57 56 53 55
57 55 53 53 54 57 57 57 57 59 59 59 58 58 58 61 63 63 59 60 61 62 62 61 60 60 57 56 57 55 56 53
57 57 56 56 57 56 58 58 58 60 59 60 59 59 61 61 61 59 59 59 62 62 62 61 61 60 58 57 54 54 54 52
61 61 60 57 58 58 59 59 59 60 61 60 59 59 59 60 60 59 60 60 60 61 61 60 58 58 56 56 55 54 52 52
60 59 58 58 57 58 59 60 60 61 61 61 61 61 61 60 60 60 59 59 59 60 59 58 58 58 57 54 53 53 52 52
62 61 60 60 59 60 61 61 61 62 62 62 62 63 62 62 61 61 59 60 61 62 60 59 58 56 54 53 53 52 51 49
63 64 62 62 61 61 61 62 63 63 63 63 63 62 62 64 63 59 59 59 58 58 58 58 56 55 52 51 51 49 49 48
65 65 65 65 64 63 62 64 64 65 65 65 65 64 63 61 58 58 59 59 59 58 57 57 54 52 52 51 49 48 47 45
66 66 67 67 68 65 63 63 64 65 65 65 65 64 62 60 59 59 58 58 59 58 56 54 52 51 50 49 47 46 46 45
67 68 68 67 67 67 66 64 63 64 64 63 61 59 60 60 60 59 58 58 56 55 54 52 51 49 48 47 45 46 45 45
62 63 68 68 68 68 68 64 63 65 63 62 60 60 60 59 58 58 58 55 53 51 51 50 48 47 46 46 46 46 45 45
62 60 60 60 66 68 65 63 64 64 61 60 59 61 61 61 55 53 52 52 50 49 49 48 47 46 46 46 45 45 45 45
63 59 56 55 55 56 63 63 63 61 58 57 54 53 53 53 51 51 50 49 49 48 47 46 46 46 46 45 45 44 44 44
63 61 57 55 54 55 55 58 56 56 53 51 51 51 51 50 49 48 48 47 47 46 45 45 44 45 40 41 43 44 44 44
61 62 58 56 54 53 53 54 54 53 52 51 51 50 49 48 48 48 47 45 45 44 44 44 43 43 41 41 40 43 40 37
62 63 59 55 53 52 51 53 53 52 51 51 51 49 49 49 48 46 45 45 43 43 42 41 41 43 39 38 37 35 33 33

GFSFLT1_sfc_temp_069.txt.gz
Temp
53 53 58 58 58 58 58 58 58 57 59 59 58 58 60 61 61 62 62 62 62 61 59 58 58 57 56 56 56 54 54 53
53 52 55 57 58 57 57 57 58 59 59 58 58 57 59 59 61 62 61 62 62 59 59 58 58 58 58 57 55 54 53 53
52 51 52 54 56 57 57 58 58 61 60 61 61 61 59 59 60 61 61 61 60 59 58 58 57 56 57 55 55 53 53 53
52 52 52 52 55 56 55 57 56 57 56 60 59 59 59 59 59 59 58 59 60 60 60 59 58 57 56 55 56 56 54 54
53 52 51 52 52 53 53 54 54 55 55 54 56 58 59 59 57 58 58 58 59 60 60 60 59 59 58 57 57 54 54 52
54 53 52 52 52 52 53 55 55 56 55 55 54 53 56 56 56 56 56 56 58 59 60 59 59 59 59 57 54 54 55 52
57 56 55 53 52 53 54 54 55 57 56 55 55 55 55 56 55 56 58 56 57 59 60 59 59 58 57 57 56 54 53 51
57 55 54 53 52 52 54 55 55 56 57 57 56 56 56 56 58 57 59 59 56 58 60 60 58 58 57 55 53 54 52 52
58 57 57 56 54 54 55 55 55 57 57 57 58 58 58 58 57 58 57 58 59 60 59 60 59 57 56 55 54 53 52 52
59 60 59 58 56 55 56 57 57 58 57 58 58 58 58 59 58 59 59 57 58 57 57 58 57 57 57 55 54 52 51 50
62 61 60 60 59 58 57 58 59 59 60 59 59 59 59 59 59 56 57 57 59 59 57 57 56 57 54 53 52 50 49 47
62 63 63 62 62 59 58 59 60 61 61 60 59 59 59 59 60 59 57 58 58 59 58 57 56 54 53 52 49 48 47 46
62 63 64 62 61 60 59 59 60 61 62 62 60 60 60 60 60 58 59 59 59 58 58 56 53 52 51 50 47 47 46 45
61 64 62 63 63 63 61 60 59 61 62 62 61 61 61 61 60 60 60 59 58 56 56 53 51 51 49 47 48 46 46 46
58 58 62 63 64 64 63 61 61 61 61 61 61 60 60 61 60 59 59 56 54 52 53 52 50 48 48 47 47 46 45 45
59 59 58 62 63 63 64 63 61 61 61 61 61 60 61 60 58 56 53 52 51 51 49 48 46 46 46 46 46 44 44 44
61 60 57 56 57 59 61 61 60 61 60 60 59 55 55 55 53 51 51 50 48 47 47 46 45 45 40 41 44 44 44 44
59 61 59 57 55 56 58 59 58 59 58 54 54 53 52 50 50 49 48 47 46 46 45 44 43 43 40 41 41 44 41 39
60 62 58 55 52 55 54 55 55 54 53 52 51 51 50 49 48 47 45 45 44 44 43 44 43 43 39 39 37 38 35 34

GFSFLT1_sfc_temp_072.txt.gz
Temp
52 53 55 57 58 59 58 58 58 58 58 57 57 57 59 59 59 62 63 62 62 60 59 59 58 57 56 56 55 54 55 54
52 53 58 56 55 57 57 57 57 57 57 57 55 56 57 58 61 62 62 62 61 59 59 58 58 57 57 55 55 55 54 54
51 53 56 56 56 57 57 58 58 59 59 60 58 55 57 58 59 61 61 62 62 60 59 58 58 56 55 55 55 53 54 53
51 51 53 55 56 56 57 58 59 60 61 60 57 57 56 57 58 59 59 60 60 60 59 58 57 55 55 55 55 55 53 53
51 52 52 54 54 55 58 58 58 57 55 58 59 59 58 61 61 58 60 59 59 59 58 58 57 56 55 55 56 55 55 51
51 51 53 54 52 55 53 53 54 54 55 57 56 56 60 57 58 59 58 56 58 58 58 58 58 58 57 56 55 54 55 53
53 53 52 52 52 52 53 52 53 54 54 53 55 54 53 53 53 53 53 54 55 56 57 57 58 57 57 57 57 55 55 55
52 51 50 50 50 52 53 53 53 54 53 54 54 54 54 54 55 53 53 53 53 54 55 56 57 58 58 57 56 55 53 52
54 53 52 51 51 51 52 53 54 55 55 55 55 55 55 55 53 54 53 55 53 56 56 56 56 56 55 55 53 54 54 54
56 56 54 53 52 52 52 53 54 55 55 56 55 54 54 54 54 53 54 54 55 55 55 56 56 56 56 55 55 54 52 52
56 57 57 56 55 54 54 55 55 55 56 56 56 55 55 55 54 55 56 56 55 55 56 55 55 55 56 56 57 55 53 51
57 58 58 58 57 55 54 55 56 55 56 56 56 55 56 57 57 57 56 57 56 57 58 57 57 57 56 54 54 51 51 49
56 57 57 58 57 55 55 55 56 57 57 57 56 57 57 57 58 58 59 57 58 59 59 58 57 56 53 52 50 50 50 48
56 57 57 58 58 57 56 56 56 58 59 58 57 57 57 58 57 58 58 58 58 59 58 56 56 54 52 51 51 49 49 49
55 55 57 59 59 59 57 56 57 58 58 58 57 57 58 57 55 56 58 59 58 57 55 54 53 51 50 49 49 48 47 47
57 56 58 58 59 59 59 58 57 58 58 58 58 58 59 56 55 57 58 58 59 57 54 53 52 50 49 48 47 45 45 44
59 58 56 57 58 59 59 58 57 57 57 57 59 58 59 57 56 57 59 57 56 53 50 49 47 46 41 43 44 45 45 44
59 61 60 59 59 58 58 59 58 57 57 57 58 58 57 57 57 54 53 52 50 49 47 46 46 45 40 41 41 45 43 39
60 62 59 57 53 53 54 55 57 57 56 57 58 57 55 51 50 50 50 49 48 47 46 45 45 42 39 39 39 39 36 36

GFSFLT1_sfc_temp_075.txt.gz
Temp
61 61 62 61 61 60 60 59 58 59 60 60 59 59 60 59 59 62 62 65 62 64 62 60 62 63 64 64 64 65 65 64
61 59 61 59 59 59 59 58 58 58 58 59 58 58 58 59 59 61 62 63 63 60 61 60 63 65 64 63 63 63 62 62
57 57 59 59 58 59 58 58 59 61 60 65 60 58 59 59 59 60 61 61 61 62 64 63 62 62 62 61 62 61 62 61
54 54 56 59 57 57 59 58 59 61 61 59 57 57 57 57 58 59 61 62 62 63 64 63 64 64 62 61 62 63 61 60
57 54 55 57 60 59 62 60 60 61 61 60 57 56 55 58 59 60 61 62 63 66 64 63 63 62 63 62 64 64 64 61
57 56 56 58 60 59 61 61 61 62 63 64 60 58 59 59 58 58 61 62 63 63 63 65 63 64 63 63 61 61 62 62
61 61 59 57 59 59 59 61 62 62 62 64 63 60 62 60 60 60 61 61 61 63 64 64 66 65 65 64 63 62 62 58
60 58 56 56 55 57 56 59 60 61 61 62 63 62 63 64 64 64 63 63 62 63 64 64 64 65 65 65 64 61 61 61
61 60 59 57 55 56 55 56 59 61 61 61 63 63 64 64 64 64 63 64 64 65 64 65 65 65 65 65 64 64 63 62
62 61 61 59 58 57 57 58 60 61 61 61 61 62 62 63 63 63 64 64 64 64 64 65 66 66 66 65 64 63 62 61
63 62 61 61 61 60 59 61 61 61 62 62 62 61 62 62 63 62 62 64 64 64 65 65 66 66 66 64 63 63 59 56
63 63 63 62 62 60 59 60 61 62 62 62 62 61 61 61 61 61 62 64 64 62 62 62 63 63 62 60 60 60 58 57
65 64 63 62 61 61 60 60 61 61 61 61 60 61 61 60 60 61 63 63 64 64 65 64 63 58 57 57 57 57 55 53
65 64 63 63 62 61 61 60 60 62 62 60 60 60 61 61 62 63 64 63 63 64 64 62 62 63 60 59 56 53 53 53
66 64 65 65 64 62 61 61 61 62 61 61 59 60 60 61 62 63 62 63 62 63 62 62 62 62 58 56 54 53 52 52
67 66 65 65 64 63 63 62 61 62 61 61 60 60 61 62 62 62 62 63 63 64 62 57 57 56 54 53 54 52 50 47
69 67 66 64 63 63 63 62 61 62 62 61 62 62 62 61 61 61 61 62 63 63 62 59 54 54 45 45 49 49 47 45
66 68 66 66 65 64 63 64 63 61 61 62 62 63 62 61 62 62 61 61 61 59 59 56 53 52 42 43 43 47 45 42
66 68 67 69 68 66 66 65 62 61 62 62 62 62 62 63 62 61 61 59 57 53 51 50 49 46 40 41 40 43 39 38

GFSFLT1_sfc_temp_078.txt.gz
Temp
73 73 73 72 71 70 67 61 60 60 61 61 60 60 60 60 62 66 69 71 71 73 74 71 72 71 70 72 70 72 73 74
72 72 71 69 67 67 63 58 59 60 60 62 58 58 58 59 63 68 69 70 72 68 69 70 71 69 70 68 70 69 70 71
69 68 69 67 65 64 61 60 60 63 66 68 62 60 60 60 61 65 64 65 64 64 67 68 69 66 63 64 69 68 69 68
69 64 66 68 64 64 62 61 60 62 64 67 62 60 59 58 59 60 63 64 66 64 64 67 64 67 66 65 65 65 65 63
72 67 67 67 67 65 63 63 61 62 64 64 64 62 57 60 59 61 62 64 64 67 65 68 66 68 69 69 69 67 70 65
73 70 70 70 70 62 63 64 62 62 63 66 65 62 63 62 59 59 61 63 66 64 65 66 69 70 70 70 68 67 69 68
76 74 72 71 71 66 65 64 63 65 63 63 63 61 58 58 58 59 60 61 61 64 66 66 68 67 69 69 69 67 67 67
75 72 71 70 69 68 65 66 64 64 64 64 65 63 59 59 61 62 60 61 62 63 63 64 66 68 70 70 69 68 67 67
75 74 73 71 68 67 63 68 68 67 65 65 66 65 65 66 68 70 67 64 65 63 63 65 67 70 71 71 70 70 71 69
76 76 74 72 70 67 65 67 71 70 68 69 69 69 67 69 69 70 69 69 71 67 69 69 71 72 72 71 69 70 70 69
77 76 74 74 72 69 67 68 70 71 70 70 70 70 69 70 70 69 70 70 71 71 71 71 71 71 71 71 71 71 70 69
76 76 76 75 74 71 68 68 70 71 71 70 69 70 70 70 69 69 70 70 71 71 71 71 71 71 72 71 71 71 69 66
78 76 75 74 73 73 70 69 70 71 71 70 69 69 69 69 69 69 70 70 71 71 71 71 71 71 71 71 69 65 61 60
78 77 75 74 74 73 72 70 69 71 71 69 68 67 68 68 68 69 70 70 71 71 72 71 71 71 72 71 65 61 61 65
79 78 76 76 74 74 72 71 70 70 70 69 67 67 68 68 69 69 69 70 69 70 71 70 70 71 70 67 66 64 64 62
80 78 79 77 75 74 74 72 70 70 70 69 69 68 69 69 68 69 69 69 69 70 68 69 69 69 68 63 63 62 60 59
79 80 81 78 76 75 74 73 71 70 69 69 70 70 69 68 69 68 69 68 69 69 69 69 68 67 51 46 56 61 57 54
77 78 77 78 80 77 75 74 73 70 69 70 70 70 69 68 69 69 67 67 67 67 67 67 67 68 45 44 44 60 55 51
76 79 77 78 79 80 78 78 74 71 70 71 71 69 69 69 69 68 67 67 66 66 66 67 67 64 43 43 42 50 46 44

GFSFLT1_sfc_temp_081.txt.gz
Temp
83 82 81 80 79 77 73 69 64 64 61 62 60 59 59 59 62 59 60 61 63 65 66 65 67 67 68 70 68 70 71 74
84 81 79 78 76 73 69 64 61 61 60 59 58 57 57 58 61 62 62 66 67 68 70 70 70 68 69 70 70 69 71 74
81 79 78 75 73 72 69 67 63 62 62 62 60 59 58 59 61 63 64 66 69 73 72 70 70 69 70 69 69 68 70 72
80 76 76 74 73 71 69 64 63 64 64 62 60 59 58 57 58 62 65 65 69 71 69 69 67 71 70 70 71 70 68 69
83 77 74 74 73 72 67 64 63 64 64 61 59 58 56 59 60 62 66 67 66 67 68 67 67 68 69 68 71 69 68 64
82 79 76 76 75 72 67 65 64 66 65 62 62 60 60 60 61 62 63 64 65 66 65 65 64 65 69 67 68 67 68 65
84 82 79 77 77 72 69 67 65 65 66 64 64 62 59 57 58 59 61 62 62 63 66 62 63 64 66 68 68 66 66 66
83 81 78 77 75 71 70 69 66 65 65 65 65 65 64 59 59 59 60 60 60 61 62 63 63 65 69 69 66 67 66 65
83 82 79 77 75 72 71 70 69 65 64 65 67 67 66 67 63 62 62 61 61 62 62 63 64 64 67 70 67 68 68 66
83 83 80 78 76 73 71 72 72 70 66 64 66 68 67 67 67 67 65 65 66 66 64 65 65 67 66 70 67 67 69 65
84 84 80 80 78 75 73 73 74 73 71 68 68 68 68 69 68 68 68 70 71 70 69 67 66 66 70 70 70 70 69 68
84 84 83 81 80 77 74 72 74 75 74 72 71 70 69 69 70 70 70 70 70 70 70 68 69 70 70 70 70 70 69 69
83 83 83 81 79 77 75 72 73 75 76 74 72 73 72 70 70 71 71 70 70 70 71 70 71 71 71 70 69 70 70 69
83 82 81 80 79 78 77 74 72 75 76 74 72 72 72 72 71 72 71 71 71 72 72 71 71 71 72 72 71 70 70 70
84 83 82 81 81 80 78 76 75 74 75 75 72 72 72 72 73 72 71 71 71 71 71 71 71 72 73 72 72 70 70 70
83 84 84 83 81 80 80 79 76 75 74 74 73 73 73 72 72 72 72 72 72 72 72 72 72 71 72 71 72 70 70 67
80 82 84 84 83 81 80 79 78 76 74 74 74 74 72 71 72 71 71 71 72 72 71 71 70 71 57 51 59 70 67 66
77 79 81 84 86 83 81 80 80 77 75 74 74 74 72 71 72 72 71 70 70 69 70 70 70 70 51 48 47 63 61 63
73 76 77 81 83 85 84 84 80 77 75 75 75 75 74 74 72 71 70 70 69 69 69 69 70 70 49 46 43 57 58 59

GFSFLT1_sfc_temp_084.txt.gz
Temp
83 82 80 79 76 74 68 67 66 65 63 60 59 58 58 58 57 58 59 60 60 60 59 60 61 61 63 63 63 63 63 64
83 80 78 76 74 72 67 65 65 63 61 58 57 56 56 56 57 58 58 59 60 59 58 59 60 60 61 63 62 62 62 64
81 78 76 74 72 70 66 66 64 63 62 60 59 58 58 57 57 59 59 59 60 60 61 61 62 61 61 62 62 60 61 63
79 76 74 72 70 69 65 65 63 63 62 60 59 58 57 56 57 58 58 60 62 64 63 64 64 63 62 62 61 61 59 60
80 76 74 72 70 70 68 64 63 63 62 59 57 56 54 57 58 59 59 62 63 64 64 65 63 63 62 62 63 63 61 60
80 76 75 75 72 68 67 64 63 64 62 60 58 57 59 59 58 58 59 62 63 64 65 64 63 63 62 64 63 61 60 59
83 78 77 75 72 68 65 62 62 63 62 60 59 59 58 56 58 58 59 60 61 63 63 63 63 62 63 62 61 61 60 60
80 77 75 74 70 67 64 63 61 62 62 62 61 60 60 58 58 59 59 59 59 61 62 62 62 62 62 62 62 62 61 60
80 78 75 74 71 68 66 65 63 62 63 62 63 62 62 61 61 61 60 61 61 62 62 62 62 62 62 62 60 62 60 59
80 80 76 75 72 68 66 67 66 63 63 63 63 63 62 61 61 62 61 62 63 62 61 62 63 63 62 63 61 61 62 61
81 81 76 76 74 70 67 69 68 66 64 64 64 64 64 63 63 61 61 62 63 62 60 61 61 62 62 62 63 63 62 61
80 80 79 77 76 73 69 69 69 68 64 64 64 64 65 64 64 63 62 62 62 63 62 62 62 62 63 62 63 63 63 61
80 81 80 77 76 74 71 69 70 70 69 65 63 64 65 64 64 65 64 63 64 64 65 64 63 63 63 62 62 64 63 61
80 79 79 78 77 75 73 70 69 70 71 68 65 64 64 64 65 65 65 65 65 66 66 66 65 64 64 64 63 64 63 63
78 79 78 78 78 76 75 72 70 70 71 70 67 66 66 66 66 66 66 66 65 66 66 65 66 65 65 65 66 64 64 64
77 78 77 79 77 77 77 75 72 71 70 70 69 68 68 68 67 66 67 67 67 67 65 65 66 66 66 65 66 64 63 63
72 74 75 76 76 77 77 76 74 72 70 69 71 70 69 67 67 67 66 66 66 66 65 65 64 67 56 51 59 64 64 63
70 71 72 73 73 74 76 77 76 73 71 71 71 71 69 68 67 67 66 65 65 64 64 65 64 65 51 49 48 64 63 62
69 70 70 71 72 73 74 78 76 74 73 72 72 71 70 69 68 66 65 65 64 64 64 64 64 66 50 47 46 58 61 60

GFSFLT1_sfc_temp_090.txt.gz
Temp
67 67 68 64 62 62 62 60 59 59 59 58 58 58 57 58 57 61 64 64 64 64 63 61 61 60 62 62 61 59 60 60
68 68 67 61 61 61 60 58 59 59 57 57 56 55 56 56 57 59 62 63 62 62 61 60 61 62 63 63 63 62 59 58
66 65 63 61 60 60 59 59 60 60 57 58 58 57 56 56 57 58 61 61 63 62 62 60 60 62 62 63 62 58 59 61
65 64 62 59 59 59 59 59 59 59 59 59 57 56 55 55 55 56 59 61 61 61 61 60 60 61 61 63 63 63 61 57
66 64 61 59 59 60 59 58 58 59 59 58 56 55 53 55 56 56 58 59 60 60 60 60 59 58 59 62 64 63 62 59
66 65 63 61 59 58 58 58 57 58 60 59 57 56 57 56 56 56 56 57 58 58 59 58 57 57 58 60 58 58 59 55
67 67 65 58 59 58 57 57 57 58 59 58 58 57 56 54 55 55 55 57 56 58 59 59 58 57 57 57 58 58 57 56
66 63 60 58 57 57 57 57 56 58 59 58 58 58 56 56 55 55 55 56 56 56 58 58 58 59 58 58 58 57 57 57
65 63 61 59 58 57 57 57 56 58 59 58 59 59 55 55 57 57 57 58 58 59 57 57 57 60 60 59 58 57 56 57
64 63 62 61 58 57 58 58 58 58 59 59 59 59 57 56 57 58 58 59 60 58 56 57 56 57 58 59 57 55 55 55
64 64 63 62 60 59 58 59 58 58 61 60 60 60 60 59 58 55 56 58 60 59 56 58 59 58 58 57 59 57 56 57
64 65 65 63 61 59 58 58 59 58 59 59 60 59 60 59 56 56 56 57 57 57 59 58 59 59 59 58 58 58 57 58
65 66 65 62 59 58 58 58 58 59 60 59 60 60 60 58 57 57 57 57 57 58 58 58 59 59 60 59 58 60 57 57
61 62 63 62 60 60 59 59 59 59 60 59 59 60 60 59 58 57 58 57 57 58 59 57 58 58 59 59 60 59 59 60
63 60 58 61 62 60 60 59 60 59 59 59 58 59 60 60 60 59 58 58 57 57 58 58 58 59 59 59 59 58 58 59
62 60 59 60 59 60 61 61 60 60 59 59 59 60 61 61 60 61 60 59 58 58 58 58 58 58 59 58 59 58 58 57
59 59 58 57 57 58 59 62 60 60 60 59 60 60 60 60 60 60 60 60 60 59 58 57 57 58 52 48 54 58 58 57
56 55 54 53 53 55 55 57 58 60 61 60 61 60 59 59 60 60 59 59 60 59 58 58 57 58 48 47 46 58 58 58
50 50 49 49 51 52 52 53 54 55 56 58 58 60 60 60 60 59 59 59 59 59 59 60 59 60 48 47 44 55 58 58

GFSFLT1_sfc_temp_093.txt.gz
Temp
67 66 65 64 62 61 61 60 59 59 59 58 56 56 58 58 59 62 63 64 64 64 62 60 60 59 58 60 59 58 56 59
68 65 63 62 60 60 60 59 60 59 58 56 56 56 56 56 56 57 61 63 63 63 62 59 59 60 61 61 60 60 57 58
63 63 60 60 61 62 61 60 60 60 60 59 58 57 56 56 57 56 58 62 63 63 62 59 59 60 61 61 62 57 56 60
62 62 58 60 61 61 60 60 60 60 57 55 55 55 55 54 55 56 58 61 62 62 61 60 59 57 59 61 62 62 58 54
63 62 59 59 59 60 59 61 60 60 56 55 55 54 53 55 55 56 58 61 61 61 62 60 59 58 60 60 62 63 60 57
63 62 61 61 59 58 60 60 59 59 56 56 54 53 53 53 55 55 56 58 59 61 60 60 59 59 58 57 58 59 60 58
65 65 63 59 58 59 59 58 58 59 56 55 55 56 55 52 54 54 55 56 56 58 59 58 58 57 56 55 56 58 57 58
63 61 59 56 57 58 58 58 57 58 56 55 57 57 56 52 55 55 55 54 55 56 58 57 57 58 57 56 56 57 57 58
63 63 60 57 57 58 58 57 57 58 57 55 59 59 55 54 54 57 56 56 57 56 57 59 59 59 58 58 57 57 56 56
64 63 59 58 57 56 56 57 58 59 59 56 58 58 57 54 54 57 55 56 58 57 57 57 58 58 58 58 56 56 56 56
64 62 60 59 58 57 57 57 57 59 60 58 56 56 56 55 54 55 53 54 56 55 55 56 57 58 58 57 58 58 57 56
60 62 61 60 59 57 57 57 57 58 60 60 57 56 56 55 54 54 54 54 55 56 56 56 56 56 56 56 58 59 57 58
59 61 61 58 57 57 56 57 57 58 59 60 58 57 57 56 55 54 54 54 55 56 56 56 57 57 56 56 56 57 56 56
60 60 59 57 56 55 56 56 56 57 58 59 58 56 56 57 56 54 54 54 54 56 56 56 56 57 56 56 57 57 56 56
57 56 56 57 58 58 57 57 58 57 57 57 58 56 56 56 57 56 55 55 55 55 56 56 56 57 57 57 57 56 56 56
56 54 54 55 55 57 58 58 58 58 57 57 56 57 57 57 56 56 56 56 56 56 55 56 56 56 57 57 58 57 56 56
52 51 51 51 53 52 53 55 56 59 58 57 58 57 57 57 57 57 56 56 56 56 55 55 55 57 50 47 53 57 57 56
48 47 47 48 49 50 49 51 54 56 58 59 59 58 57 58 59 58 58 58 57 56 56 56 55 56 47 46 45 56 56 56
45 45 44 44 48 50 50 51 51 51 50 51 51 52 54 58 58 58 58 58 58 58 58 58 57 57 46 45 44 53 56 56

GFSFLT1_sfc_temp_096.txt.gz
Temp
65 66 64 61 61 61 60 61 59 58 58 57 57 57 57 59 62 63 64 64 64 63 62 60 61 59 59 60 57 58 59 58
63 66 62 59 59 59 59 60 60 60 59 58 57 57 57 56 56 60 62 64 63 63 62 59 60 60 59 59 58 57 57 59
62 60 58 60 59 60 59 61 61 61 60 61 58 58 56 54 54 57 58 61 63 63 61 59 59 58 58 59 60 57 56 60
60 58 58 59 58 59 60 62 61 61 61 59 56 55 55 54 54 53 55 57 61 63 61 60 58 57 57 58 60 61 57 57
61 60 58 58 59 61 61 62 61 61 59 57 55 55 52 53 53 54 57 57 60 61 61 60 59 57 57 59 62 61 59 57
59 62 61 59 59 62 62 61 61 60 57 55 54 51 55 57 52 55 57 58 59 61 61 60 59 57 58 59 60 60 61 59
62 64 61 58 61 62 61 60 60 59 57 54 53 52 53 52 54 54 57 57 59 60 60 60 59 57 57 58 59 61 59 58
59 60 59 57 59 60 60 59 58 58 57 54 53 53 53 55 54 55 54 55 56 58 59 59 58 58 58 58 57 57 56 57
59 61 61 57 59 60 60 59 58 58 57 54 54 53 53 56 52 56 56 56 56 57 58 58 57 57 57 57 57 57 55 55
59 62 62 57 59 59 60 58 59 58 57 55 54 54 53 53 52 53 57 57 57 56 58 57 57 57 57 57 57 57 57 56
59 63 61 57 58 60 59 59 59 59 58 57 55 54 54 52 53 52 53 57 57 56 56 56 56 57 58 57 56 57 56 57
58 59 59 58 59 59 58 58 59 59 59 58 54 53 53 53 52 52 52 53 53 55 56 56 57 57 57 57 57 56 55 56
57 57 57 55 56 57 57 57 58 59 59 59 57 54 53 52 51 51 52 52 53 53 54 55 56 56 56 57 57 58 57 56
56 56 55 54 55 55 56 55 56 58 59 58 57 57 53 52 52 51 51 52 52 53 53 54 55 56 56 55 55 55 55 57
52 52 54 55 54 55 55 55 56 56 58 59 57 56 56 53 53 52 52 52 52 52 52 53 54 55 56 55 55 54 55 55
49 49 50 51 52 54 57 57 57 57 56 57 57 57 57 55 53 53 53 52 53 53 53 53 54 54 55 55 55 55 54 54
46 45 47 48 49 50 52 53 54 57 57 56 56 57 57 57 56 54 53 53 53 52 52 53 52 55 48 46 52 55 55 54
43 43 43 45 48 48 48 50 52 52 52 52 53 55 57 57 57 56 55 54 53 53 53 53 53 54 46 46 44 55 55 55
40 40 41 42 45 48 48 49 48 48 47 47 47 48 50 51 53 55 57 57 56 55 55 55 55 56 46 44 43 52 55 55

GFSFLT1_sfc_temp_099.txt.gz
Temp
76 75 75 74 73 71 70 68 65 64 66 66 66 64 63 65 65 65 65 67 67 65 63 62 61 59 57 57 57 58 61 66
75 74 74 72 70 68 68 66 63 63 63 61 60 61 62 62 62 66 64 64 65 64 62 61 62 60 58 57 57 57 60 64
72 73 72 69 68 68 68 67 63 65 64 65 65 62 61 63 62 61 64 66 64 64 62 61 61 61 60 58 59 59 62 62
72 71 70 69 68 67 67 68 64 65 64 64 61 59 58 58 59 62 61 62 62 64 62 62 61 60 59 61 61 62 59 63
71 73 71 67 68 68 68 68 65 65 64 62 61 62 58 58 62 63 66 64 66 62 63 61 60 60 58 59 63 63 62 61
70 72 73 72 68 66 67 67 66 64 63 63 61 59 61 63 63 63 64 64 65 67 62 61 59 59 59 57 58 63 63 63
70 73 73 69 67 66 66 64 64 63 61 61 59 59 62 62 60 62 63 62 63 66 63 63 59 59 59 58 59 59 60 61
64 69 68 66 64 64 65 64 61 61 61 59 59 63 63 59 60 63 61 58 59 63 61 61 60 62 61 59 57 57 58 60
64 66 68 65 64 64 63 63 61 62 60 58 61 63 63 63 63 64 61 59 59 60 63 60 60 60 60 58 57 57 58 58
63 65 67 64 64 64 63 62 62 61 59 58 61 63 62 63 62 62 61 60 60 59 59 59 59 59 58 58 57 57 58 57
62 64 66 64 64 64 64 62 61 60 60 58 62 62 63 63 62 61 60 59 59 59 59 58 57 57 57 57 57 57 56 57
60 61 62 63 64 64 61 60 60 59 59 58 61 62 61 61 61 61 62 60 59 58 58 59 58 58 58 58 57 59 59 59
58 58 59 61 61 60 59 59 59 59 59 59 61 61 61 60 60 60 61 61 59 60 59 58 58 58 60 60 57 59 59 59
51 55 56 57 57 57 57 58 58 59 60 59 59 59 59 60 60 60 60 61 62 62 61 57 56 57 58 58 58 58 57 57
47 48 49 51 55 56 57 57 59 59 60 60 59 60 60 60 60 60 59 60 61 61 62 62 61 60 58 57 57 57 58 60
44 44 46 47 49 50 52 56 59 59 59 59 58 60 59 59 60 60 60 59 60 62 61 61 62 62 62 61 59 57 57 58
43 43 43 45 46 47 48 49 54 58 58 57 58 58 58 57 58 60 59 59 60 60 59 60 60 61 49 46 55 61 60 61
40 41 41 42 45 46 46 46 48 47 48 49 50 52 52 54 57 57 57 59 59 59 59 60 60 61 45 45 44 62 62 61
37 38 39 41 45 46 45 44 45 43 43 43 45 47 47 48 48 48 48 52 56 56 56 57 57 48 38 41 42 53 56 56

GFSFLT1_sfc_temp_102.txt.gz
Temp
87 89 89 89 88 85 83 79 76 69 68 77 78 68 68 69 68 73 73 72 73 72 70 62 61 59 58 59 59 60 61 69
88 88 88 87 85 83 81 78 77 69 68 70 68 64 65 69 67 70 72 71 70 69 67 63 61 59 58 59 58 58 59 64
83 86 87 85 84 81 80 80 78 73 75 76 75 70 67 70 68 71 72 71 68 68 65 64 61 60 59 58 58 57 58 62
81 82 84 85 83 81 80 80 79 75 78 78 74 71 67 66 67 64 68 71 67 65 65 63 61 61 60 60 60 60 58 60
79 81 83 85 84 83 81 81 80 76 77 75 70 69 67 71 70 66 65 69 67 65 64 64 62 60 59 62 63 61 64 61
76 79 82 85 86 82 80 80 80 76 76 75 72 73 75 75 71 67 68 71 71 67 62 64 62 61 60 60 63 63 64 64
74 78 81 83 86 82 78 77 77 76 73 73 72 72 72 71 70 70 70 68 71 70 69 62 62 62 61 60 60 63 63 66
73 75 78 81 82 78 76 76 76 71 68 71 72 71 72 71 71 72 71 66 66 69 68 65 61 61 61 59 58 59 60 61
71 75 77 79 79 76 75 75 74 67 66 69 71 71 73 73 71 73 72 70 69 68 66 66 64 62 60 59 57 58 59 59
65 73 77 78 78 75 73 73 71 65 64 65 65 72 72 72 71 71 69 67 66 63 64 60 61 62 63 61 61 59 58 58
57 70 74 77 77 74 69 68 67 63 64 64 67 71 72 72 70 68 68 67 65 63 60 63 60 60 60 60 58 57 57 57
52 59 70 74 74 73 66 65 64 62 62 63 68 70 71 70 70 69 68 67 64 63 63 64 59 58 57 57 57 57 56 56
49 51 59 66 70 66 63 63 62 61 61 62 67 69 70 69 69 68 67 66 65 63 62 65 62 62 61 60 58 59 57 57
47 48 50 55 60 61 63 61 59 60 60 61 64 65 68 69 69 69 68 66 66 65 65 63 62 63 63 62 61 62 61 61
45 44 47 48 50 57 58 58 59 59 60 62 62 63 67 68 68 67 67 67 65 65 65 65 64 64 64 64 63 61 64 65
41 41 43 46 47 48 50 57 58 59 59 61 61 63 64 65 64 65 66 66 66 66 65 66 65 64 64 63 62 62 62 61
39 39 41 43 45 45 46 47 48 51 51 52 59 61 60 60 63 62 62 64 65 65 65 65 65 66 51 48 57 63 63 63
36 36 39 41 43 44 43 43 45 45 46 47 48 50 52 52 57 58 61 62 64 63 64 65 64 59 38 42 45 65 65 64
34 34 36 39 43 44 42 43 43 42 41 43 44 46 46 47 48 48 49 51 49 52 50 56 46 40 37 37 38 50 55 58

GFSFLT1_sfc_temp_105.txt.gz
Temp
89 91 94 96 96 93 91 87 82 80 80 81 83 82 76 78 78 77 76 76 74 74 72 72 71 66 63 62 61 62 62 62
91 91 92 93 92 90 89 85 81 79 72 77 80 75 68 70 71 75 77 78 75 72 71 65 64 61 60 60 60 60 60 62
87 90 90 89 89 88 87 87 83 80 75 79 83 74 70 75 72 75 75 77 75 73 70 65 62 60 59 59 59 59 59 61
85 87 87 88 88 87 87 86 84 81 78 81 81 77 72 71 70 72 72 74 73 72 71 66 62 61 59 59 59 59 58 59
83 84 85 86 88 89 88 87 86 84 79 80 78 76 71 72 72 71 74 72 72 71 69 64 63 60 59 60 62 60 59 57
78 80 83 86 88 89 87 87 86 85 81 81 80 76 76 77 76 72 70 73 73 69 67 68 63 62 61 61 62 62 61 59
78 81 82 84 87 86 87 85 85 85 80 80 79 74 77 77 76 71 67 69 70 72 67 64 64 63 62 61 62 63 63 63
74 75 80 82 83 85 87 84 83 83 79 79 78 76 78 76 74 73 73 68 70 71 70 67 62 62 63 61 61 60 62 62
70 71 74 81 82 83 85 85 82 83 79 78 78 78 78 78 76 76 76 72 70 71 69 68 66 64 61 61 60 60 60 60
65 65 65 74 81 83 83 82 82 82 76 76 75 76 76 77 76 76 76 75 71 69 71 70 64 64 62 60 59 58 58 58
59 59 60 65 78 83 81 80 81 76 69 68 72 74 76 76 75 74 74 71 69 68 67 67 67 64 62 61 59 59 59 58
54 53 52 58 65 80 77 77 77 67 64 64 69 71 75 75 73 73 69 67 68 67 67 62 60 59 60 60 61 60 58 58
53 48 47 50 52 69 67 68 65 66 62 63 68 70 72 72 72 71 69 65 68 68 68 63 63 62 60 58 56 57 56 55
53 46 43 46 48 54 63 63 61 61 61 63 66 67 69 71 72 69 66 67 66 68 68 65 64 64 62 60 59 59 59 60
51 44 40 42 46 48 54 60 60 60 61 62 62 63 66 70 73 67 65 65 66 65 66 65 63 64 64 64 64 63 63 64
44 44 40 39 44 44 46 49 58 60 59 60 59 62 65 69 69 66 65 65 64 65 64 64 64 63 65 64 64 62 63 64
38 40 38 37 41 41 43 44 45 49 49 49 57 61 63 63 63 63 63 63 65 64 64 64 65 66 40 45 55 65 65 64
35 34 35 36 39 41 40 41 43 43 43 45 47 50 51 51 58 61 61 61 63 63 63 63 53 45 38 39 40 62 62 63
34 32 33 36 38 40 40 41 40 40 40 41 43 45 45 46 47 48 48 47 45 46 45 46 43 40 36 37 37 56 57 53

GFSFLT1_sfc_temp_108.txt.gz
Temp
86 86 88 90 88 83 81 78 77 76 77 77 77 75 74 74 73 72 72 72 70 70 68 67 67 65 63 63 63 63 62 62
85 84 82 81 81 81 81 78 76 76 75 75 75 73 71 70 72 73 71 72 71 69 67 67 66 64 64 62 62 61 61 63
83 83 82 79 79 81 81 80 77 77 76 76 76 74 70 70 68 69 71 71 70 69 66 64 62 61 61 61 60 59 59 61
81 82 81 79 78 79 81 81 78 77 75 75 75 71 68 67 68 68 70 70 70 68 66 63 61 61 59 59 60 59 57 60
79 79 78 78 78 79 80 81 80 78 74 73 72 69 65 67 68 69 69 69 69 68 66 63 61 60 59 59 61 59 59 57
75 77 78 79 77 76 77 79 82 79 75 74 73 71 70 68 70 68 67 68 68 69 66 64 61 60 60 60 60 59 59 59
72 73 75 77 77 77 75 78 80 80 75 73 73 72 71 69 69 66 66 67 67 67 66 64 62 61 59 60 61 60 59 59
67 67 68 70 70 72 76 78 80 79 76 73 74 73 72 70 69 68 65 66 66 66 66 64 63 62 60 61 61 61 60 59
64 63 63 63 66 68 61 79 80 79 77 74 74 75 73 73 72 69 67 66 65 66 66 64 63 63 61 61 60 60 60 60
59 58 58 56 60 61 61 66 80 79 77 74 73 73 72 73 70 70 69 67 67 65 66 65 63 63 62 61 59 59 60 59
56 54 52 52 57 57 57 71 78 77 76 74 73 72 73 72 70 68 68 67 66 64 64 65 64 62 61 60 59 59 58 58
54 51 49 48 52 52 53 72 75 72 71 69 69 70 70 69 69 68 67 64 64 63 63 63 61 61 60 59 58 58 57 57
52 49 46 44 47 48 50 58 63 65 67 65 65 66 67 66 66 67 64 63 64 64 63 61 61 60 60 59 58 58 57 57
47 48 44 42 43 44 46 49 60 61 62 62 63 64 64 65 66 66 64 63 63 64 63 62 61 60 59 58 58 57 58 57
42 42 43 41 42 43 43 44 49 59 60 60 60 61 63 63 65 64 62 63 62 63 63 63 62 61 61 60 59 57 57 57
38 38 39 41 40 40 41 42 44 48 53 57 59 60 62 63 63 62 61 61 62 62 61 61 61 61 58 60 60 59 59 58
35 36 36 37 39 38 40 40 41 43 44 44 48 54 58 59 61 61 60 60 61 61 61 60 59 50 39 40 50 59 59 59
33 33 34 35 38 39 38 39 41 40 40 42 43 45 47 50 55 57 56 55 59 57 57 49 45 42 37 39 39 58 56 53
33 32 33 33 36 38 39 39 39 38 38 39 41 42 42 43 45 44 43 43 43 43 44 44 41 38 37 37 38 54 45 42

GFSFLT1_sfc_temp_111.txt.gz
Temp
78 77 78 78 77 72 78 75 75 74 73 72 71 67 67 67 66 66 66 70 67 65 64 64 64 63 63 62 62 62 62 62
78 77 76 76 73 70 75 74 73 73 72 71 70 67 66 66 66 67 67 67 66 64 64 64 64 63 64 63 62 61 61 61
72 70 68 71 75 73 73 73 72 74 74 74 70 65 63 64 64 66 67 66 66 65 64 62 64 62 62 62 61 60 61 62
71 73 67 68 70 70 74 74 72 73 73 69 66 64 64 62 61 62 64 66 66 66 63 62 62 61 61 61 61 60 58 60
67 65 66 67 68 71 70 74 73 73 71 71 69 66 63 63 62 62 63 64 65 64 62 61 59 59 60 60 61 61 60 58
62 62 63 64 65 64 66 68 73 73 72 71 69 64 64 61 61 62 62 63 63 64 62 60 59 59 59 59 59 60 60 58
59 60 61 60 60 61 63 64 67 71 70 69 69 66 63 63 62 63 62 63 63 63 62 61 61 59 59 59 60 59 59 59
54 54 53 53 53 56 59 60 61 64 69 69 69 69 66 63 63 62 62 61 63 62 62 60 60 60 60 59 59 59 59 59
52 51 50 49 51 53 54 53 55 58 69 69 70 70 68 66 66 64 63 63 61 62 62 61 61 61 60 59 59 59 59 59
49 49 48 48 48 50 50 52 53 60 68 69 69 67 66 68 68 65 64 63 62 61 61 61 62 61 60 60 59 59 59 58
47 46 46 47 48 49 50 52 53 64 65 70 68 66 68 67 68 65 63 63 63 60 61 61 60 61 60 60 59 60 59 58
44 44 44 44 47 47 47 48 50 59 62 66 66 66 66 63 66 67 65 63 61 61 60 61 60 61 60 59 59 59 58 58
42 43 42 43 44 44 44 45 47 50 59 59 61 62 63 63 64 63 63 60 60 59 59 59 60 61 60 59 57 58 57 56
41 40 40 41 42 42 43 43 45 48 57 58 59 59 61 62 62 62 62 61 59 59 59 60 59 60 59 59 58 57 57 57
38 37 38 39 41 41 41 42 43 45 48 51 55 59 60 62 62 61 60 61 59 60 61 60 59 59 59 59 58 58 58 58
35 35 35 37 38 40 41 41 41 43 44 45 46 49 59 59 61 60 60 60 60 60 60 59 60 59 57 58 58 57 56 56
34 34 35 35 37 38 39 39 39 41 41 41 43 44 47 53 59 59 59 59 59 59 58 58 50 48 39 40 53 57 57 57
32 32 33 35 35 37 37 38 39 39 39 40 41 41 42 43 45 52 53 56 55 53 50 48 44 42 37 40 40 58 56 52
33 32 33 34 36 36 37 37 37 37 37 38 39 40 40 40 40 38 39 40 41 41 40 40 39 38 37 38 41 47 42 40

GFSFLT1_sfc_temp_114.txt.gz
Temp
72 70 72 72 72 72 75 74 73 73 73 69 68 67 66 67 67 66 66 67 66 65 64 63 64 64 62 62 62 63 62 61
75 75 78 69 69 65 73 73 73 73 71 67 66 66 65 65 66 66 65 65 66 65 64 63 63 64 64 63 62 61 60 62
69 68 69 68 67 64 71 73 72 73 72 72 69 68 64 65 64 65 66 65 65 64 64 63 63 62 62 63 62 60 61 61
62 60 59 60 60 60 65 71 72 73 74 68 63 62 62 60 62 64 64 65 65 65 64 63 62 62 63 62 62 61 59 60
58 57 56 55 56 61 63 65 69 73 73 69 66 66 64 65 65 64 64 65 64 64 63 62 62 62 62 61 62 61 60 58
52 52 53 52 53 54 58 60 62 67 68 70 68 68 69 62 63 62 64 64 64 64 62 61 60 59 58 59 60 60 60 59
49 50 51 50 50 51 53 54 56 59 62 66 66 66 64 62 62 62 62 63 61 62 62 61 60 58 57 58 60 60 60 60
45 44 45 47 47 48 51 51 51 55 56 62 66 67 64 63 63 64 62 61 61 62 62 60 58 58 58 59 59 59 59 59
44 44 43 44 46 47 48 50 51 54 53 56 66 68 64 65 63 64 63 63 63 62 62 61 59 58 59 58 58 59 59 59
41 42 42 42 44 45 47 48 50 53 56 60 64 66 65 64 64 63 63 63 63 61 62 60 58 58 59 58 58 58 58 59
40 41 42 43 44 45 47 47 47 50 53 59 64 65 66 65 64 62 62 62 62 61 61 61 60 60 59 59 58 59 58 58
40 41 42 44 44 45 45 45 45 47 50 56 62 65 65 64 64 63 62 61 61 61 61 61 60 60 59 59 59 59 58 58
39 40 41 41 42 42 42 43 43 45 48 51 59 60 60 62 63 63 62 62 62 61 60 61 61 60 59 58 58 58 58 57
37 37 37 38 40 40 41 42 42 44 46 48 51 52 59 60 60 61 61 61 61 60 59 59 61 60 60 59 59 58 58 58
36 35 36 37 38 39 40 41 42 42 44 44 45 47 50 59 58 59 60 60 60 60 59 58 60 60 60 59 58 58 58 58
34 34 34 35 36 37 39 39 40 41 41 42 42 44 46 48 58 58 60 60 60 60 59 58 58 58 57 58 58 57 57 57
34 34 34 34 35 35 37 38 38 40 39 39 41 43 43 42 45 54 59 59 59 59 58 57 53 49 39 40 52 57 57 56
32 32 32 33 35 35 35 36 37 37 38 38 39 40 40 40 41 41 42 45 51 49 49 48 44 42 38 40 39 56 56 55
32 32 32 33 36 37 36 36 35 34 34 36 37 38 38 39 39 37 36 37 37 38 38 39 39 39 37 38 40 47 43 41

GFSFLT1_sfc_temp_117.txt.gz
Temp
70 69 69 70 70 73 73 71 71 70 70 67 66 64 66 66 66 67 66 67 66 64 63 62 63 63 63 62 62 62 62 61
70 72 71 65 62 64 70 69 70 69 68 65 65 65 65 65 66 66 66 67 66 64 63 62 63 64 63 63 62 61 61 61
64 60 59 55 56 58 63 69 71 70 71 70 69 68 65 65 63 64 66 65 65 64 64 62 63 64 63 62 62 61 61 61
56 55 51 51 52 53 58 64 69 70 72 70 63 62 62 61 62 64 65 65 64 65 64 63 63 63 63 63 63 61 60 60
51 50 48 48 49 51 54 57 61 67 68 67 64 65 63 65 66 67 65 65 64 64 64 62 62 63 62 63 63 62 61 59
46 46 48 48 48 48 51 53 55 59 63 67 65 63 64 61 62 64 63 63 64 64 63 62 62 62 64 62 62 61 61 60
43 46 47 46 46 47 50 51 52 55 56 58 65 65 63 60 60 61 62 62 62 63 63 62 62 62 60 60 60 61 60 59
40 40 42 44 44 45 48 50 50 52 54 55 58 65 64 64 62 62 62 62 62 62 62 62 61 60 59 58 60 59 59 59
40 41 42 42 43 44 45 47 49 51 52 54 56 59 65 65 67 65 63 62 63 63 63 62 61 59 59 60 59 58 58 58
40 41 42 43 43 43 44 46 47 48 49 51 53 57 63 63 63 63 64 63 63 61 63 61 60 59 60 59 58 57 58 58
39 40 41 42 43 43 43 45 45 46 47 50 53 57 61 64 63 62 62 62 62 61 62 61 59 59 59 59 57 58 57 58
38 39 40 41 43 42 42 43 43 44 45 47 50 52 61 64 62 62 62 61 61 60 62 61 60 59 58 58 57 58 57 57
37 38 38 39 39 41 41 41 41 43 44 46 47 49 52 62 61 61 60 60 61 61 61 61 60 60 59 58 57 58 57 57
36 37 36 37 37 38 39 40 40 42 44 44 44 45 47 50 59 61 60 60 60 60 61 60 60 60 59 59 59 58 58 58
35 34 35 36 37 37 38 39 40 41 42 42 41 43 44 45 50 59 60 60 60 59 60 60 60 60 60 59 59 58 58 59
33 33 34 35 36 36 37 37 38 39 39 39 40 41 43 43 44 46 56 59 59 59 59 59 59 60 59 59 59 58 57 57
32 33 33 33 35 35 36 36 36 37 36 36 39 40 41 41 41 41 41 43 53 58 58 58 57 49 39 45 54 58 57 57
29 30 31 32 33 35 34 35 36 35 35 35 36 38 38 38 39 39 38 37 38 40 43 46 42 40 38 39 43 57 57 56
28 28 30 31 33 35 36 35 34 33 32 33 33 34 35 37 37 36 37 37 35 34 35 37 38 38 38 39 38 50 45 42

GFSFLT1_sfc_temp_120.txt.gz
Temp
70 65 65 70 72 72 71 70 69 67 67 66 65 65 65 65 65 65 65 66 65 64 64 63 63 63 63 62 62 62 62 61
63 59 57 57 59 61 66 68 68 68 68 65 66 65 66 66 65 66 65 66 65 64 64 62 63 64 63 63 62 61 60 61
56 53 53 51 50 51 55 63 67 67 69 68 68 67 67 67 66 66 66 66 65 65 64 63 63 63 63 63 62 60 61 61
50 50 49 47 47 47 51 53 63 67 69 68 63 63 62 63 63 64 65 66 65 65 64 64 63 64 63 63 63 62 60 60
45 46 47 44 45 48 49 52 55 62 67 67 66 65 65 66 66 66 66 66 66 65 64 63 64 65 64 63 64 63 61 59
39 41 44 46 45 46 48 54 55 56 58 65 64 64 64 62 63 64 65 63 64 65 64 63 63 64 64 62 63 63 62 61
42 43 44 44 46 46 48 51 53 54 56 56 60 63 61 61 61 62 63 63 63 63 63 63 63 63 63 63 63 62 61 61
40 41 42 43 44 45 47 48 49 52 53 53 55 57 60 62 62 63 62 62 62 62 63 63 63 63 63 63 62 61 61 61
39 41 41 42 43 44 45 46 47 48 50 51 54 55 57 61 65 62 63 62 63 64 64 64 64 63 62 61 61 61 61 60
38 40 41 41 42 42 43 44 45 46 47 49 51 52 55 58 62 63 63 63 63 64 64 64 63 62 61 60 60 59 59 59
38 39 39 41 42 42 43 43 43 45 46 47 49 50 52 53 59 64 62 62 61 62 63 63 63 61 60 60 60 59 58 58
36 38 39 40 41 41 41 41 41 42 44 45 46 47 49 51 59 64 62 61 61 61 62 62 61 60 60 59 59 58 57 57
33 35 38 38 39 39 39 39 39 41 43 43 44 45 46 47 49 54 61 60 60 60 61 62 61 60 59 59 57 57 57 56
33 34 35 36 37 38 38 38 39 40 41 41 42 42 43 44 46 49 56 60 60 60 61 61 61 59 59 59 59 58 57 57
32 32 33 34 36 36 37 37 38 39 39 39 39 40 41 42 44 44 46 49 59 59 60 61 61 60 59 59 58 57 57 57
31 31 32 33 34 35 36 36 36 37 38 37 37 39 41 41 42 43 43 43 45 47 59 60 60 59 59 59 59 58 57 57
29 30 31 31 32 34 34 33 34 35 35 35 37 38 39 39 39 40 41 41 41 41 42 46 52 45 41 45 54 58 58 57
26 27 28 29 30 33 33 32 34 32 32 33 34 36 36 37 37 38 38 37 39 38 38 38 38 38 37 43 43 58 57 57
26 26 26 28 31 32 35 32 31 31 30 31 32 33 33 35 35 35 35 36 35 35 36 36 36 37 36 38 41 50 47 41

GFSFLT1_sfc_temp_123.txt.gz
Temp
72 74 77 77 80 78 78 75 74 73 73 73 72 71 72 71 71 72 70 70 68 69 69 68 69 67 67 67 67 65 66 67
68 63 63 67 65 70 76 73 74 73 72 70 71 69 70 70 73 74 73 72 69 69 69 68 67 67 66 66 65 63 63 64
62 57 56 56 57 59 64 70 73 72 74 74 74 73 72 71 71 72 73 72 71 71 69 68 67 66 66 65 64 62 63 63
50 52 52 53 53 54 58 62 65 71 74 74 71 71 69 67 68 68 69 72 72 72 70 69 67 67 65 65 64 65 62 63
47 48 49 50 51 53 57 61 63 65 68 71 69 69 68 70 69 68 68 71 72 72 69 69 68 67 67 66 67 67 67 63
43 45 47 49 49 51 55 59 59 59 63 65 68 68 72 74 71 68 67 68 69 70 68 67 67 67 68 66 67 67 67 67
42 44 46 46 48 50 53 54 54 56 57 57 58 66 69 67 69 68 68 67 66 66 66 66 66 65 66 66 68 69 67 66
40 40 42 43 44 45 48 49 49 52 53 53 54 55 57 61 69 68 67 66 64 65 65 65 65 65 65 66 65 68 67 68
38 40 40 41 42 43 44 46 46 49 49 50 52 54 55 57 60 63 66 65 66 67 65 66 67 65 65 65 65 65 65 65
37 39 41 42 42 42 42 44 45 47 47 50 50 52 52 53 55 58 63 67 68 68 67 66 67 67 65 64 63 63 63 63
35 37 39 41 42 42 43 43 42 44 45 46 47 48 50 51 53 56 60 64 66 67 67 68 69 68 64 63 62 63 61 62
33 34 37 40 41 41 41 41 42 42 42 44 45 45 47 48 49 50 52 63 64 65 67 67 67 65 63 61 61 62 61 61
32 32 33 35 37 39 39 39 40 41 42 42 42 44 44 45 46 47 48 50 63 63 64 65 67 65 63 60 60 61 60 59
31 32 32 33 35 37 37 38 39 42 42 41 41 41 42 42 43 45 46 47 49 60 62 62 62 62 62 61 60 60 60 60
31 30 31 31 34 35 36 36 38 40 41 39 39 40 40 40 42 42 43 45 45 46 48 59 61 62 61 61 60 60 59 60
30 30 30 31 32 36 36 36 36 38 38 38 37 38 40 41 40 40 41 41 43 44 44 44 43 46 42 42 56 59 58 58
28 29 29 30 31 34 35 35 35 36 36 35 37 38 38 39 39 40 39 39 39 39 39 41 40 41 37 38 41 57 58 57
27 27 27 28 29 33 34 33 35 34 33 33 34 36 36 36 37 37 38 38 37 36 35 37 36 36 37 38 38 50 57 57
26 25 26 27 30 32 34 35 33 32 31 30 32 33 34 35 36 35 35 36 35 34 35 35 35 35 35 36 37 39 38 37